Time,TemperatureF,DewpointF,PressureIn,WindDirection,WindDirectionDegrees,WindSpeedMPH,WindSpeedGustMPH,Humidity,HourlyPrecipIn,Conditions,Clouds,dailyrainin,SoftwareType,DateUTC
2013-02-19 00:00:00,149.5,99.9,0.00,SSW,211,10.6,10.6,99,0.00,,SKC,0.00,VWS V14.01,2013-02-19 05:00:00,
2013-02-19 00:05:00,149.5,99.9,0.00,South,177,7.6,8.2,99,0.00,,SKC,0.00,VWS V14.01,2013-02-19 05:05:00,
2013-02-19 00:10:00,149.5,99.9,0.00,SW,226,5.7,10.9,100,0.00,,SKC,0.00,VWS V14.01,2013-02-19 05:10:00,
2013-02-19 00:15:00,149.5,99.9,0.00,SSW,212,8.6,10.9,100,0.00,,SKC,0.00,VWS V14.01,2013-02-19 05:15:00,
2013-02-19 00:20:00,149.5,99.9,0.00,SSW,198,9.7,17.3,100,0.00,,SKC,0.00,VWS V14.01,2013-02-19 05:20:00,
2013-02-19 00:25:00,149.5,99.9,0.00,SW,228,11.7,20.4,100,0.00,,SKC,0.00,VWS V14.01,2013-02-19 05:25:00,
2013-02-19 00:26:00,149.5,99.9,0.00,SW,221,9.8,13.5,100,0.00,,SKC,0.00,VWS V14.01,2013-02-19 05:26:00,
2013-02-19 00:30:00,149.5,99.9,0.00,SW,229,11.7,18.1,100,0.00,,SKC,0.00,VWS V14.01,2013-02-19 05:30:00,
2013-02-19 00:31:00,149.5,99.9,0.00,SSW,210,8.6,17.3,100,0.00,,SKC,0.00,VWS V14.01,2013-02-19 05:31:00,
2013-02-19 00:35:00,149.5,99.9,0.00,SW,231,14.2,17.4,100,0.00,,SKC,0.00,VWS V14.01,2013-02-19 05:35:00,
2013-02-19 00:36:00,149.5,99.9,0.00,SW,236,15.3,16.6,100,0.00,,SKC,0.00,VWS V14.01,2013-02-19 05:36:00,
2013-02-19 00:40:00,149.5,99.9,0.00,SW,233,16.7,21.3,100,0.00,,SKC,0.00,VWS V14.01,2013-02-19 05:40:00,
2013-02-19 00:41:00,149.5,99.9,0.00,South,181,10.9,16.5,100,0.00,,SKC,0.00,VWS V14.01,2013-02-19 05:41:00,
2013-02-19 00:45:00,149.5,99.9,0.00,SW,231,18.3,19.5,99,0.00,,SKC,0.00,VWS V14.01,2013-02-19 05:45:00,
2013-02-19 00:46:00,149.5,99.9,0.00,WSW,243,14.1,19.8,99,0.00,,SKC,0.00,VWS V14.01,2013-02-19 05:46:00,
2013-02-19 00:50:00,149.5,99.9,0.00,SW,218,19.9,19.9,99,0.00,,SKC,0.00,VWS V14.01,2013-02-19 05:50:00,
2013-02-19 00:51:00,149.5,99.9,0.00,SW,218,13.7,19.9,99,0.00,,SKC,0.00,VWS V14.01,2013-02-19 05:51:00,
2013-02-19 00:55:00,149.5,99.9,0.00,SW,232,12.7,16.8,100,0.00,,SKC,0.00,VWS V14.01,2013-02-19 05:55:00,
2013-02-19 00:56:00,149.5,99.9,0.00,SSW,205,15.5,17.0,100,0.00,,SKC,0.00,VWS V14.01,2013-02-19 05:56:00,
2013-02-19 01:00:00,149.5,99.9,0.00,NE,42,1.4,3.0,71,0.00,,SKC,0.54,VWS V14.01,2013-02-19 06:00:00,
2013-02-19 01:01:00,149.5,99.9,0.00,SSW,207,9.9,19.9,100,0.00,,SKC,0.00,VWS V14.01,2013-02-19 06:01:00,
2013-02-19 01:02:00,149.5,99.9,0.00,WSW,238,13.4,14.0,100,0.00,,SKC,0.00,VWS V14.01,2013-02-19 06:02:00,
2013-02-19 01:06:00,149.5,99.9,0.00,SW,233,15.0,17.5,100,0.00,,SKC,0.00,VWS V14.01,2013-02-19 06:06:00,
2013-02-19 01:07:00,149.5,99.9,0.00,WSW,238,7.4,12.6,100,0.00,,SKC,0.00,VWS V14.01,2013-02-19 06:07:00,
2013-02-19 01:11:00,149.5,99.9,0.00,WSW,243,11.4,14.1,100,0.00,,SKC,0.00,VWS V14.01,2013-02-19 06:11:00,
2013-02-19 01:12:00,149.5,99.9,0.00,SW,229,8.6,17.0,100,0.00,,SKC,0.00,VWS V14.01,2013-02-19 06:12:00,
2013-02-19 01:16:00,149.5,99.9,0.00,SW,221,12.1,15.5,100,0.00,,SKC,0.00,VWS V14.01,2013-02-19 06:16:00,
2013-02-19 01:17:00,149.5,99.9,0.00,WSW,248,11.4,13.5,100,0.00,,SKC,0.00,VWS V14.01,2013-02-19 06:17:00,
2013-02-19 01:21:00,149.5,99.9,0.00,WSW,239,8.8,15.1,100,0.00,,SKC,0.00,VWS V14.01,2013-02-19 06:21:00,
2013-02-19 01:22:00,149.5,99.9,0.00,SW,229,11.4,13.4,100,0.00,,SKC,0.00,VWS V14.01,2013-02-19 06:22:00,
2013-02-19 01:23:00,149.5,99.9,0.00,SW,222,10.3,10.3,100,0.00,,SKC,0.00,VWS V14.01,2013-02-19 06:23:00,
2013-02-19 01:26:00,149.5,99.9,0.00,SW,218,9.5,11.2,100,0.00,,SKC,0.00,VWS V14.01,2013-02-19 06:26:00,
2013-02-19 01:27:00,149.5,99.9,0.00,WSW,256,13.7,14.6,100,0.00,,SKC,0.00,VWS V14.01,2013-02-19 06:27:00,
2013-02-19 01:28:00,149.5,99.9,0.00,WSW,255,9.1,14.1,100,0.00,,SKC,0.00,VWS V14.01,2013-02-19 06:28:00,
2013-02-19 01:31:00,149.5,99.9,0.00,WSW,252,9.4,18.5,100,0.00,,SKC,0.00,VWS V14.01,2013-02-19 06:31:00,
2013-02-19 01:32:00,149.5,99.9,0.00,WSW,248,10.3,10.3,100,0.00,,SKC,0.00,VWS V14.01,2013-02-19 06:32:00,
2013-02-19 01:33:00,149.5,99.9,0.00,SW,228,8.4,10.1,100,0.00,,SKC,0.00,VWS V14.01,2013-02-19 06:33:00,
2013-02-19 01:36:00,149.5,99.9,0.00,West,262,8.9,17.9,100,0.00,,SKC,0.00,VWS V14.01,2013-02-19 06:36:00,
2013-02-19 01:37:00,149.5,99.9,0.00,West,260,9.7,16.5,100,0.00,,SKC,0.00,VWS V14.01,2013-02-19 06:37:00,
2013-02-19 01:38:00,149.5,99.9,0.00,SW,219,6.6,9.8,100,0.00,,SKC,0.00,VWS V14.01,2013-02-19 06:38:00,
2013-02-19 01:41:00,149.5,99.9,0.00,SW,226,9.7,13.0,100,0.00,,SKC,0.00,VWS V14.01,2013-02-19 06:41:00,
2013-02-19 01:42:00,149.5,99.9,0.00,SW,221,10.6,12.5,100,0.00,,SKC,0.00,VWS V14.01,2013-02-19 06:42:00,
2013-02-19 01:43:00,149.5,99.9,0.00,WSW,242,9.2,9.2,100,0.00,,SKC,0.00,VWS V14.01,2013-02-19 06:43:00,
2013-02-19 01:46:00,149.5,99.9,0.00,SW,233,8.0,9.8,100,0.00,,SKC,0.00,VWS V14.01,2013-02-19 06:46:00,
2013-02-19 01:47:00,149.5,99.9,0.00,WSW,240,7.3,10.7,100,0.00,,SKC,0.00,VWS V14.01,2013-02-19 06:47:00,
2013-02-19 01:48:00,149.5,99.9,0.00,SW,226,5.8,11.1,100,0.00,,SKC,0.00,VWS V14.01,2013-02-19 06:48:00,
2013-02-19 01:51:00,149.5,99.9,0.00,SW,228,11.5,13.0,100,0.00,,SKC,0.00,VWS V14.01,2013-02-19 06:51:00,
2013-02-19 01:52:00,149.5,99.9,0.00,WSW,249,14.0,14.1,100,0.00,,SKC,0.00,VWS V14.01,2013-02-19 06:52:00,
2013-02-19 01:53:00,149.5,99.9,0.00,SSW,211,9.3,14.2,100,0.00,,SKC,0.00,VWS V14.01,2013-02-19 06:53:00,
2013-02-19 01:56:00,149.5,99.9,0.00,South,176,10.5,17.3,100,0.00,,SKC,0.00,VWS V14.01,2013-02-19 06:56:00,
2013-02-19 01:57:00,149.5,99.9,0.00,SW,226,14.7,19.0,100,0.00,,SKC,0.00,VWS V14.01,2013-02-19 06:57:00,
2013-02-19 01:58:00,149.5,99.9,0.00,SW,226,11.4,15.8,100,0.00,,SKC,0.00,VWS V14.01,2013-02-19 06:58:00,
2013-02-19 02:01:00,149.5,99.9,0.00,SSW,204,14.6,19.1,100,0.00,,SKC,0.00,VWS V14.01,2013-02-19 07:01:00,
2013-02-19 02:02:00,149.5,99.9,0.00,SSW,200,12.4,14.1,100,0.00,,SKC,0.00,VWS V14.01,2013-02-19 07:02:00,
2013-02-19 02:03:00,149.5,99.9,0.00,WNW,298,6.5,16.2,100,0.00,,SKC,0.00,VWS V14.01,2013-02-19 07:03:00,
2013-02-19 02:06:00,149.5,99.9,0.00,WSW,245,9.1,14.0,100,0.00,,SKC,0.00,VWS V14.01,2013-02-19 07:06:00,
2013-02-19 02:07:00,149.5,99.9,0.00,WSW,245,12.4,20.1,100,0.00,,SKC,0.00,VWS V14.01,2013-02-19 07:07:00,
2013-02-19 02:08:00,149.5,99.9,0.00,SSW,211,11.6,16.7,100,0.00,,SKC,0.00,VWS V14.01,2013-02-19 07:08:00,
2013-02-19 02:11:00,149.5,99.9,0.00,SSW,212,9.8,18.3,100,0.00,,SKC,0.00,VWS V14.01,2013-02-19 07:11:00,
2013-02-19 02:12:00,149.5,99.9,0.00,SSW,210,12.4,21.3,100,0.00,,SKC,0.00,VWS V14.01,2013-02-19 07:12:00,
2013-02-19 02:13:00,149.5,99.9,0.00,SW,226,10.7,16.3,100,0.00,,SKC,0.00,VWS V14.01,2013-02-19 07:13:00,
2013-02-19 02:16:00,149.5,99.9,0.00,SW,226,12.1,19.3,100,0.00,,SKC,0.00,VWS V14.01,2013-02-19 07:16:00,
2013-02-19 02:17:00,149.5,99.9,0.00,WSW,253,12.4,15.9,100,0.00,,SKC,0.00,VWS V14.01,2013-02-19 07:17:00,
2013-02-19 02:18:00,149.5,99.9,0.00,SW,235,14.9,15.9,100,0.00,,SKC,0.00,VWS V14.01,2013-02-19 07:18:00,
2013-02-19 02:21:00,149.5,99.9,0.00,SSW,210,16.0,16.2,100,0.00,,SKC,0.00,VWS V14.01,2013-02-19 07:21:00,
2013-02-19 02:23:00,149.5,99.9,0.00,SW,217,13.9,13.9,100,0.00,,SKC,0.00,VWS V14.01,2013-02-19 07:23:00,
2013-02-19 02:26:00,149.5,99.9,0.00,WSW,253,12.7,17.1,100,0.00,,SKC,0.00,VWS V14.01,2013-02-19 07:26:00,
2013-02-19 02:28:00,149.5,99.9,0.00,SW,217,11.6,16.5,100,0.00,,SKC,0.00,VWS V14.01,2013-02-19 07:28:00,
2013-02-19 02:31:00,149.5,99.9,0.00,SW,218,16.9,18.8,100,0.00,,SKC,0.00,VWS V14.01,2013-02-19 07:31:00,
2013-02-19 02:33:00,149.5,99.9,0.00,SW,224,11.9,18.0,100,0.00,,SKC,0.00,VWS V14.01,2013-02-19 07:33:00,
2013-02-19 02:36:00,149.5,99.9,0.00,SW,218,12.2,19.0,100,0.00,,SKC,0.00,VWS V14.01,2013-02-19 07:36:00,
2013-02-19 02:38:00,149.5,99.9,0.00,West,263,9.0,18.4,100,0.00,,SKC,0.00,VWS V14.01,2013-02-19 07:38:00,
2013-02-19 02:41:00,149.5,99.9,0.00,WSW,246,12.6,12.9,100,0.00,,SKC,0.00,VWS V14.01,2013-02-19 07:41:00,
2013-02-19 02:43:00,149.5,99.9,0.00,SSW,211,12.3,18.3,100,0.00,,SKC,0.00,VWS V14.01,2013-02-19 07:43:00,
2013-02-19 02:46:00,149.5,99.9,0.00,West,270,13.5,14.5,100,0.01,,SKC,0.01,VWS V14.01,2013-02-19 07:46:00,
2013-02-19 02:48:00,149.5,99.9,0.00,West,266,11.6,18.0,100,0.01,,SKC,0.01,VWS V14.01,2013-02-19 07:48:00,
2013-02-19 02:49:00,149.5,99.9,0.00,WSW,239,16.0,16.0,100,0.01,,SKC,0.01,VWS V14.01,2013-02-19 07:49:00,
2013-02-19 02:52:00,149.5,99.9,0.00,West,274,18.6,18.6,100,0.02,,SKC,0.02,VWS V14.01,2013-02-19 07:52:00,
2013-02-19 02:53:00,149.5,99.9,0.00,SW,219,14.4,16.5,100,0.02,,SKC,0.02,VWS V14.01,2013-02-19 07:53:00,
2013-02-19 02:54:00,149.5,99.9,0.00,SSW,212,12.2,16.5,100,0.02,,SKC,0.02,VWS V14.01,2013-02-19 07:54:00,
2013-02-19 02:57:00,149.5,99.9,0.00,WSW,242,10.9,16.6,100,0.02,,SKC,0.02,VWS V14.01,2013-02-19 07:57:00,
2013-02-19 02:59:00,149.5,99.9,0.00,WSW,252,14.5,14.5,100,0.02,,SKC,0.02,VWS V14.01,2013-02-19 07:59:00,
2013-02-19 03:02:00,149.5,99.9,0.00,SW,225,10.6,10.6,100,0.02,,SKC,0.02,VWS V14.01,2013-02-19 08:02:00,
2013-02-19 03:04:00,149.5,99.9,0.00,WSW,238,11.8,12.7,100,0.02,,SKC,0.02,VWS V14.01,2013-02-19 08:04:00,
2013-02-19 03:07:00,149.5,99.9,0.00,West,270,7.8,10.4,100,0.02,,SKC,0.02,VWS V14.01,2013-02-19 08:07:00,
2013-02-19 03:09:00,149.5,99.9,0.00,SW,232,11.1,12.4,100,0.02,,SKC,0.02,VWS V14.01,2013-02-19 08:09:00,
2013-02-19 03:12:00,149.5,99.9,0.00,WNW,283,9.2,10.1,100,0.02,,SKC,0.02,VWS V14.01,2013-02-19 08:12:00,
2013-02-19 03:14:00,149.5,99.9,0.00,West,271,12.6,13.0,100,0.02,,SKC,0.02,VWS V14.01,2013-02-19 08:14:00,
2013-02-19 03:17:00,149.5,99.9,0.00,WSW,252,9.4,9.4,100,0.02,,SKC,0.02,VWS V14.01,2013-02-19 08:17:00,
2013-02-19 03:19:00,149.5,99.9,0.00,SSW,202,4.3,8.1,100,0.02,,SKC,0.02,VWS V14.01,2013-02-19 08:19:00,
2013-02-19 03:22:00,149.5,99.9,0.00,WSW,242,8.9,11.2,100,0.02,,SKC,0.02,VWS V14.01,2013-02-19 08:22:00,
2013-02-19 03:24:00,149.5,99.9,0.00,SW,228,11.6,11.6,100,0.02,,SKC,0.02,VWS V14.01,2013-02-19 08:24:00,
2013-02-19 03:27:00,149.5,99.9,0.00,SW,235,8.2,15.1,100,0.02,,SKC,0.02,VWS V14.01,2013-02-19 08:27:00,
2013-02-19 03:29:00,149.5,99.9,0.00,West,273,12.7,14.1,100,0.02,,SKC,0.02,VWS V14.01,2013-02-19 08:29:00,
2013-02-19 03:30:00,149.5,99.9,0.00,SW,221,9.1,11.0,100,0.02,,SKC,0.02,VWS V14.01,2013-02-19 08:30:00,
2013-02-19 03:32:00,149.5,99.9,0.00,WNW,287,7.6,11.6,100,0.02,,SKC,0.02,VWS V14.01,2013-02-19 08:32:00,
2013-02-19 03:34:00,149.5,99.9,0.00,NW,311,4.1,9.0,100,0.02,,SKC,0.02,VWS V14.01,2013-02-19 08:34:00,
2013-02-19 03:35:00,149.5,99.9,0.00,West,264,7.5,9.1,100,0.02,,SKC,0.02,VWS V14.01,2013-02-19 08:35:00,
2013-02-19 03:37:00,149.5,99.9,0.00,WNW,298,2.3,5.6,100,0.02,,SKC,0.02,VWS V14.01,2013-02-19 08:37:00,
2013-02-19 03:39:00,149.5,99.9,0.00,WNW,302,7.1,10.9,100,0.02,,SKC,0.02,VWS V14.01,2013-02-19 08:39:00,
2013-02-19 03:42:00,149.5,99.9,0.00,WNW,294,1.4,6.5,100,0.02,,SKC,0.02,VWS V14.01,2013-02-19 08:42:00,
2013-02-19 03:44:00,149.5,99.9,0.00,West,278,6.3,10.7,100,0.02,,SKC,0.02,VWS V14.01,2013-02-19 08:44:00,
2013-02-19 03:47:00,149.5,99.9,0.00,NW,319,6.5,12.2,100,0.02,,SKC,0.03,VWS V14.01,2013-02-19 08:47:00,
2013-02-19 03:49:00,149.5,99.9,0.00,WNW,284,2.9,10.0,100,0.02,,SKC,0.03,VWS V14.01,2013-02-19 08:49:00,
2013-02-19 03:50:00,149.5,99.9,0.00,WNW,287,6.0,9.1,100,0.02,,SKC,0.03,VWS V14.01,2013-02-19 08:50:00,
2013-02-19 03:52:00,149.5,99.9,0.00,West,264,6.3,10.5,100,0.02,,SKC,0.03,VWS V14.01,2013-02-19 08:52:00,
2013-02-19 03:54:00,149.5,99.9,0.00,SW,228,6.8,6.8,100,0.01,,SKC,0.03,VWS V14.01,2013-02-19 08:54:00,
2013-02-19 03:55:00,149.5,99.9,0.00,WNW,291,7.6,7.6,100,0.01,,SKC,0.03,VWS V14.01,2013-02-19 08:55:00,
2013-02-19 03:57:00,149.5,99.9,0.00,WSW,255,9.1,10.4,100,0.02,,SKC,0.04,VWS V14.01,2013-02-19 08:57:00,
2013-02-19 03:59:00,149.5,99.9,0.00,SW,235,7.3,9.4,100,0.03,,SKC,0.05,VWS V14.01,2013-02-19 08:59:00,
2013-02-19 04:00:00,149.5,99.9,0.00,NNW,330,5.9,9.4,100,0.03,,SKC,0.05,VWS V14.01,2013-02-19 09:00:00,
2013-02-19 04:02:00,149.5,99.9,0.00,SW,228,7.3,9.6,100,0.03,,SKC,0.05,VWS V14.01,2013-02-19 09:02:00,
2013-02-19 04:05:00,149.5,99.9,0.00,WSW,246,6.1,8.4,100,0.04,,SKC,0.06,VWS V14.01,2013-02-19 09:05:00,
2013-02-19 04:07:00,149.5,99.9,0.00,SW,214,9.5,9.5,100,0.04,,SKC,0.06,VWS V14.01,2013-02-19 09:07:00,
2013-02-19 04:10:00,149.5,99.9,0.00,NW,312,5.5,8.8,100,0.04,,SKC,0.06,VWS V14.01,2013-02-19 09:10:00,
2013-02-19 04:11:00,149.5,99.9,0.00,NW,308,9.6,10.4,100,0.05,,SKC,0.07,VWS V14.01,2013-02-19 09:11:00,
2013-02-19 04:12:00,149.5,99.9,0.00,WNW,291,10.6,12.6,100,0.09,,SKC,0.11,VWS V14.01,2013-02-19 09:12:00,
2013-02-19 04:15:00,149.5,99.9,0.00,WNW,285,9.4,21.0,100,0.13,,SKC,0.15,VWS V14.01,2013-02-19 09:15:00,
2013-02-19 04:16:00,149.5,99.9,0.00,WSW,255,9.5,14.7,100,0.14,,SKC,0.15,VWS V14.01,2013-02-19 09:16:00,
2013-02-19 04:18:00,149.5,99.9,0.00,SW,225,17.1,22.3,100,0.15,,SKC,0.17,VWS V14.01,2013-02-19 09:18:00,
2013-02-19 04:20:00,149.5,99.9,0.00,NW,318,6.2,20.8,100,0.16,,SKC,0.18,VWS V14.01,2013-02-19 09:20:00,
2013-02-19 04:21:00,149.5,99.9,0.00,WNW,295,8.9,9.0,100,0.16,,SKC,0.18,VWS V14.01,2013-02-19 09:21:00,
2013-02-19 04:23:00,149.5,99.9,0.00,SW,217,5.1,15.3,100,0.17,,SKC,0.19,VWS V14.01,2013-02-19 09:23:00,
2013-02-19 04:25:00,149.5,99.9,0.00,WSW,256,15.0,15.0,100,0.17,,SKC,0.19,VWS V14.01,2013-02-19 09:25:00,
2013-02-19 04:26:00,149.5,99.9,0.00,West,271,10.6,17.5,100,0.17,,SKC,0.19,VWS V14.01,2013-02-19 09:26:00,
2013-02-19 04:28:00,149.5,99.9,0.00,WNW,285,8.8,14.5,100,0.19,,SKC,0.21,VWS V14.01,2013-02-19 09:28:00,
2013-02-19 04:30:00,149.5,99.9,0.00,NW,322,7.2,15.3,100,0.20,,SKC,0.22,VWS V14.01,2013-02-19 09:30:00,
2013-02-19 04:31:00,149.5,99.9,0.00,WNW,295,8.1,11.7,100,0.21,,SKC,0.23,VWS V14.01,2013-02-19 09:31:00,
2013-02-19 04:33:00,149.5,99.9,0.00,West,277,6.5,12.7,100,0.21,,SKC,0.23,VWS V14.01,2013-02-19 09:33:00,
2013-02-19 04:35:00,149.5,99.9,0.00,WNW,292,8.8,14.9,100,0.23,,SKC,0.25,VWS V14.01,2013-02-19 09:35:00,
2013-02-19 04:36:00,149.5,99.9,0.00,West,276,7.4,15.7,100,0.23,,SKC,0.25,VWS V14.01,2013-02-19 09:36:00,
2013-02-19 04:38:00,149.5,99.9,0.00,NW,326,9.1,14.4,100,0.24,,SKC,0.26,VWS V14.01,2013-02-19 09:38:00,
2013-02-19 04:41:00,149.5,99.9,0.00,West,267,8.3,11.8,100,0.27,,SKC,0.29,VWS V14.01,2013-02-19 09:41:00,
2013-02-19 04:43:00,149.5,99.9,0.00,NW,308,17.0,17.0,100,0.29,,SKC,0.31,VWS V14.01,2013-02-19 09:43:00,
2013-02-19 04:46:00,149.5,99.9,0.00,WNW,294,9.1,9.1,100,0.33,,SKC,0.35,VWS V14.01,2013-02-19 09:46:00,
2013-02-19 04:48:00,149.5,99.9,0.00,NW,323,6.5,9.7,100,0.36,,SKC,0.39,VWS V14.01,2013-02-19 09:48:00,
2013-02-19 04:51:00,149.5,99.9,0.00,NW,311,8.0,10.9,100,0.38,,SKC,0.41,VWS V14.01,2013-02-19 09:51:00,
2013-02-19 04:53:00,149.5,99.9,0.00,NW,309,10.8,11.6,100,0.38,,SKC,0.41,VWS V14.01,2013-02-19 09:53:00,
2013-02-19 04:56:00,149.5,99.9,0.00,WNW,290,7.5,8.6,100,0.39,,SKC,0.42,VWS V14.01,2013-02-19 09:56:00,
2013-02-19 04:58:00,149.5,99.9,0.00,NW,318,8.0,8.3,100,0.38,,SKC,0.42,VWS V14.01,2013-02-19 09:58:00,
2013-02-19 05:01:00,149.5,99.9,0.00,NNW,339,4.8,9.6,100,0.38,,SKC,0.43,VWS V14.01,2013-02-19 10:01:00,
2013-02-19 05:02:00,149.5,99.9,0.00,NW,326,8.3,9.4,100,0.39,,SKC,0.44,VWS V14.01,2013-02-19 10:02:00,
2013-02-19 05:03:00,149.5,99.9,0.00,North,356,6.1,9.6,100,0.39,,SKC,0.44,VWS V14.01,2013-02-19 10:03:00,
2013-02-19 05:06:00,149.5,99.9,0.00,WNW,285,8.6,8.6,100,0.39,,SKC,0.45,VWS V14.01,2013-02-19 10:06:00,
2013-02-19 05:07:00,149.5,99.9,0.00,NW,311,8.0,11.9,100,0.39,,SKC,0.45,VWS V14.01,2013-02-19 10:07:00,
2013-02-19 05:08:00,149.5,99.9,0.00,NW,316,8.6,12.7,100,0.39,,SKC,0.45,VWS V14.01,2013-02-19 10:08:00,
2013-02-19 05:11:00,149.5,99.9,0.00,NW,321,8.8,10.9,100,0.41,,SKC,0.48,VWS V14.01,2013-02-19 10:11:00,
2013-02-19 05:12:00,149.5,99.9,0.00,NNW,333,5.5,9.8,100,0.42,,SKC,0.49,VWS V14.01,2013-02-19 10:12:00,
2013-02-19 05:13:00,149.5,99.9,0.00,NNW,346,6.6,8.0,100,0.41,,SKC,0.52,VWS V14.01,2013-02-19 10:13:00,
2013-02-19 05:16:00,149.5,99.9,0.00,NW,319,6.3,10.9,100,0.38,,SKC,0.53,VWS V14.01,2013-02-19 10:16:00,
2013-02-19 05:17:00,149.5,99.9,0.00,WNW,294,6.6,8.7,100,0.37,,SKC,0.53,VWS V14.01,2013-02-19 10:17:00,
2013-02-19 05:18:00,149.5,99.9,0.00,NW,308,8.1,8.6,100,0.36,,SKC,0.53,VWS V14.01,2013-02-19 10:18:00,
2013-02-19 05:21:00,149.5,99.9,0.00,NNW,328,8.8,9.8,100,0.35,,SKC,0.53,VWS V14.01,2013-02-19 10:21:00,
2013-02-19 05:22:00,149.5,99.9,0.00,NNW,338,6.9,8.1,100,0.34,,SKC,0.53,VWS V14.01,2013-02-19 10:22:00,
2013-02-19 05:23:00,149.5,99.9,0.00,NNW,333,7.1,9.1,100,0.34,,SKC,0.53,VWS V14.01,2013-02-19 10:23:00,
2013-02-19 05:26:00,149.5,99.9,0.00,NNW,345,7.3,8.7,100,0.34,,SKC,0.53,VWS V14.01,2013-02-19 10:26:00,
2013-02-19 05:27:00,149.5,99.9,0.00,WNW,294,6.4,7.8,100,0.33,,SKC,0.53,VWS V14.01,2013-02-19 10:27:00,
2013-02-19 05:28:00,149.5,99.9,0.00,NNW,328,6.6,12.2,100,0.32,,SKC,0.53,VWS V14.01,2013-02-19 10:28:00,
2013-02-19 05:31:00,149.5,99.9,0.00,North,353,7.5,12.4,100,0.31,,SKC,0.53,VWS V14.01,2013-02-19 10:31:00,
2013-02-19 05:32:00,149.5,99.9,0.00,NNW,333,7.3,9.8,100,0.30,,SKC,0.53,VWS V14.01,2013-02-19 10:32:00,
2013-02-19 05:33:00,149.5,99.9,0.00,NNW,343,5.0,8.8,100,0.30,,SKC,0.53,VWS V14.01,2013-02-19 10:33:00,
2013-02-19 05:36:00,149.5,99.9,0.00,NNW,329,8.9,9.1,100,0.28,,SKC,0.53,VWS V14.01,2013-02-19 10:36:00,
2013-02-19 05:37:00,149.5,99.9,0.00,NW,319,10.7,12.3,100,0.28,,SKC,0.53,VWS V14.01,2013-02-19 10:37:00,
2013-02-19 05:38:00,149.5,99.9,0.00,North,6,5.0,5.0,100,0.26,,SKC,0.53,VWS V14.01,2013-02-19 10:38:00,
2013-02-19 05:42:00,149.5,99.9,0.00,North,0,6.5,8.5,100,0.24,,SKC,0.53,VWS V14.01,2013-02-19 10:42:00,
2013-02-19 05:43:00,149.5,99.9,0.00,North,4,9.5,10.6,100,0.21,,SKC,0.53,VWS V14.01,2013-02-19 10:43:00,
2013-02-19 05:47:00,149.5,99.9,0.00,North,6,7.6,9.6,100,0.16,,SKC,0.53,VWS V14.01,2013-02-19 10:47:00,
2013-02-19 05:49:00,149.5,99.9,0.00,North,359,8.4,8.4,100,0.13,,SKC,0.53,VWS V14.01,2013-02-19 10:49:00,
2013-02-19 05:52:00,149.5,99.9,0.00,North,10,8.1,8.7,100,0.12,,SKC,0.53,VWS V14.01,2013-02-19 10:52:00,
2013-02-19 05:54:00,149.5,99.9,0.00,North,8,8.0,9.8,100,0.12,,SKC,0.53,VWS V14.01,2013-02-19 10:54:00,
2013-02-19 05:57:00,149.5,99.9,0.00,NNE,24,5.2,6.6,100,0.11,,SKC,0.53,VWS V14.01,2013-02-19 10:57:00,
2013-02-19 05:59:00,149.5,99.9,0.00,North,359,8.4,8.5,100,0.11,,SKC,0.53,VWS V14.01,2013-02-19 10:59:00,
2013-02-19 06:02:00,149.5,99.9,0.00,North,4,5.5,5.9,100,0.10,,SKC,0.53,VWS V14.01,2013-02-19 11:02:00,
2013-02-19 06:03:00,149.5,99.9,0.00,NNE,14,3.7,5.1,100,0.09,,SKC,0.53,VWS V14.01,2013-02-19 11:03:00,
2013-02-19 06:04:00,149.5,99.9,0.00,North,0,5.2,6.3,100,0.09,,SKC,0.53,VWS V14.01,2013-02-19 11:04:00,
2013-02-19 06:07:00,149.5,99.9,0.00,North,352,4.2,6.0,100,0.08,,SKC,0.53,VWS V14.01,2013-02-19 11:07:00,
2013-02-19 06:08:00,149.5,99.9,0.00,North,7,5.6,5.6,100,0.08,,SKC,0.53,VWS V14.01,2013-02-19 11:08:00,
2013-02-19 06:09:00,149.5,99.9,0.00,North,353,3.7,6.0,100,0.08,,SKC,0.53,VWS V14.01,2013-02-19 11:09:00,
2013-02-19 06:12:00,149.5,99.9,0.00,NNE,25,5.0,6.1,100,0.05,,SKC,0.53,VWS V14.01,2013-02-19 11:12:00,
2013-02-19 06:13:00,149.5,99.9,0.00,NNE,15,7.6,8.0,100,0.02,,SKC,0.53,VWS V14.01,2013-02-19 11:13:00,
2013-02-19 06:14:00,149.5,99.9,0.00,North,0,5.2,7.0,100,0.01,,SKC,0.53,VWS V14.01,2013-02-19 11:14:00,
2013-02-19 06:17:00,149.5,99.9,0.00,North,0,6.6,9.8,100,0.00,,SKC,0.53,VWS V14.01,2013-02-19 11:17:00,
2013-02-19 06:18:00,149.5,99.9,0.00,North,352,6.0,8.5,100,0.00,,SKC,0.53,VWS V14.01,2013-02-19 11:18:00,
2013-02-19 06:19:00,149.5,99.9,0.00,North,8,5.5,6.1,100,0.00,,SKC,0.53,VWS V14.01,2013-02-19 11:19:00,
2013-02-19 06:22:00,149.5,99.9,0.00,NNW,335,2.7,4.3,100,0.00,,SKC,0.53,VWS V14.01,2013-02-19 11:22:00,
2013-02-19 06:23:00,149.5,99.9,0.00,North,1,3.5,4.9,100,0.00,,SKC,0.53,VWS V14.01,2013-02-19 11:23:00,
2013-02-19 06:24:00,149.5,99.9,0.00,North,350,4.2,4.2,100,0.00,,SKC,0.53,VWS V14.01,2013-02-19 11:24:00,
2013-02-19 06:27:00,149.5,99.9,0.00,NNW,345,5.7,8.4,100,0.00,,SKC,0.53,VWS V14.01,2013-02-19 11:27:00,
2013-02-19 06:28:00,149.5,99.9,0.00,NNE,18,4.7,8.0,100,0.00,,SKC,0.53,VWS V14.01,2013-02-19 11:28:00,
2013-02-19 06:29:00,149.5,99.9,0.00,NNE,20,3.7,5.0,100,0.00,,SKC,0.53,VWS V14.01,2013-02-19 11:29:00,
2013-02-19 06:32:00,149.5,99.9,0.00,North,359,3.9,6.7,100,0.00,,SKC,0.53,VWS V14.01,2013-02-19 11:32:00,
2013-02-19 06:33:00,149.5,99.9,0.00,North,8,6.1,6.1,100,0.00,,SKC,0.53,VWS V14.01,2013-02-19 11:33:00,
2013-02-19 06:34:00,149.5,99.9,0.00,NNE,24,4.7,6.1,100,0.00,,SKC,0.53,VWS V14.01,2013-02-19 11:34:00,
2013-02-19 06:37:00,149.5,99.9,0.00,North,352,8.3,8.3,100,0.00,,SKC,0.53,VWS V14.01,2013-02-19 11:37:00,
2013-02-19 06:38:00,149.5,99.9,0.00,North,8,5.6,6.6,100,0.00,,SKC,0.53,VWS V14.01,2013-02-19 11:38:00,
2013-02-19 06:39:00,149.5,99.9,0.00,North,359,6.3,6.6,100,0.00,,SKC,0.53,VWS V14.01,2013-02-19 11:39:00,
2013-02-19 06:43:00,149.5,99.9,0.00,NNE,14,5.2,5.5,100,0.00,,SKC,0.53,VWS V14.01,2013-02-19 11:43:00,
2013-02-19 06:44:00,149.5,99.9,0.00,North,11,3.7,5.5,100,0.00,,SKC,0.53,VWS V14.01,2013-02-19 11:44:00,
2013-02-19 06:45:00,149.5,99.9,0.00,North,7,4.0,4.8,100,0.00,,SKC,0.53,VWS V14.01,2013-02-19 11:45:00,
2013-02-19 06:48:00,149.5,99.9,0.00,NNE,18,5.0,6.4,100,0.00,,SKC,0.53,VWS V14.01,2013-02-19 11:48:00,
2013-02-19 06:49:00,149.5,99.9,0.00,North,7,6.0,6.3,100,0.00,,SKC,0.53,VWS V14.01,2013-02-19 11:49:00,
2013-02-19 06:50:00,149.5,99.9,0.00,North,10,4.0,4.6,100,0.00,,SKC,0.53,VWS V14.01,2013-02-19 11:50:00,
2013-02-19 06:53:00,149.5,99.9,0.00,NNE,15,5.0,5.5,100,0.00,,SKC,0.53,VWS V14.01,2013-02-19 11:53:00,
2013-02-19 06:54:00,149.5,99.9,0.00,North,1,3.5,3.7,100,0.00,,SKC,0.53,VWS V14.01,2013-02-19 11:54:00,
2013-02-19 06:55:00,149.5,99.9,0.00,North,8,3.9,4.7,100,0.00,,SKC,0.53,VWS V14.01,2013-02-19 11:55:00,
2013-02-19 06:58:00,149.5,99.9,0.00,North,8,4.9,5.5,100,0.00,,SKC,0.53,VWS V14.01,2013-02-19 11:58:00,
2013-02-19 06:59:00,149.5,99.9,0.00,North,11,3.1,3.4,100,0.00,,SKC,0.53,VWS V14.01,2013-02-19 11:59:00,
2013-02-19 07:00:00,149.5,99.9,0.00,NNE,14,2.9,4.4,100,0.00,,SKC,0.53,VWS V14.01,2013-02-19 12:00:00,
2013-02-19 07:03:00,149.5,99.9,0.00,NNE,13,3.1,3.1,100,0.00,,SKC,0.53,VWS V14.01,2013-02-19 12:03:00,
2013-02-19 07:04:00,149.5,99.9,0.00,NNE,13,1.9,2.5,100,0.00,,SKC,0.53,VWS V14.01,2013-02-19 12:04:00,
2013-02-19 07:05:00,149.5,99.9,0.00,North,1,2.1,2.1,100,0.00,,SKC,0.53,VWS V14.01,2013-02-19 12:05:00,
2013-02-19 07:08:00,149.5,99.9,0.00,North,354,3.0,4.7,100,0.00,,SKC,0.53,VWS V14.01,2013-02-19 12:08:00,
2013-02-19 07:09:00,149.5,99.9,0.00,NNW,347,4.9,5.6,100,0.00,,SKC,0.53,VWS V14.01,2013-02-19 12:09:00,
2013-02-19 07:10:00,149.5,99.9,0.00,NNW,336,4.8,5.3,100,0.00,,SKC,0.53,VWS V14.01,2013-02-19 12:10:00,
2013-02-19 07:13:00,149.5,99.9,0.00,NNW,346,3.0,4.6,100,0.00,,SKC,0.53,VWS V14.01,2013-02-19 12:13:00,
2013-02-19 07:14:00,149.5,99.9,0.00,NNW,342,5.8,6.8,100,0.00,,SKC,0.53,VWS V14.01,2013-02-19 12:14:00,
2013-02-19 07:15:00,149.5,99.9,0.00,North,349,3.9,5.2,100,0.00,,SKC,0.53,VWS V14.01,2013-02-19 12:15:00,
2013-02-19 07:18:00,149.5,99.9,0.00,NNW,336,6.0,7.1,100,0.00,,SKC,0.53,VWS V14.01,2013-02-19 12:18:00,
2013-02-19 07:19:00,149.5,99.9,0.00,North,352,3.0,3.0,100,0.00,,SKC,0.53,VWS V14.01,2013-02-19 12:19:00,
2013-02-19 07:20:00,149.5,99.9,0.00,North,359,5.4,5.4,100,0.00,,SKC,0.53,VWS V14.01,2013-02-19 12:20:00,
2013-02-19 07:21:00,149.5,99.9,0.00,North,8,6.6,6.9,100,0.00,,SKC,0.53,VWS V14.01,2013-02-19 12:21:00,
2013-02-19 07:23:00,149.5,99.9,0.00,North,357,7.0,7.6,100,0.00,,SKC,0.53,VWS V14.01,2013-02-19 12:23:00,
2013-02-19 07:25:00,149.5,99.9,0.00,NNW,347,6.5,6.5,100,0.00,,SKC,0.53,VWS V14.01,2013-02-19 12:25:00,
2013-02-19 07:26:00,149.5,99.9,0.00,NNW,340,5.8,5.8,100,0.00,,SKC,0.53,VWS V14.01,2013-02-19 12:26:00,
2013-02-19 07:28:00,149.5,99.9,0.00,North,357,5.5,7.1,100,0.00,,SKC,0.53,VWS V14.01,2013-02-19 12:28:00,
2013-02-19 07:30:00,149.5,99.9,0.00,North,1,5.4,6.3,100,0.00,,SKC,0.53,VWS V14.01,2013-02-19 12:30:00,
2013-02-19 07:31:00,149.5,99.9,0.00,North,3,5.7,6.5,100,0.00,,SKC,0.53,VWS V14.01,2013-02-19 12:31:00,
2013-02-19 07:33:00,149.5,99.9,0.00,North,6,7.1,7.8,100,0.00,,SKC,0.53,VWS V14.01,2013-02-19 12:33:00,
2013-02-19 07:35:00,149.5,99.9,0.00,North,0,7.1,7.3,100,0.00,,SKC,0.53,VWS V14.01,2013-02-19 12:35:00,
2013-02-19 07:36:00,149.5,99.9,0.00,North,6,6.3,8.9,100,0.00,,SKC,0.53,VWS V14.01,2013-02-19 12:36:00,
2013-02-19 07:38:00,149.5,99.9,0.00,North,3,7.4,7.4,100,0.00,,SKC,0.53,VWS V14.01,2013-02-19 12:38:00,
2013-02-19 07:40:00,149.5,99.9,0.00,NNW,338,6.8,9.5,100,0.00,,SKC,0.53,VWS V14.01,2013-02-19 12:40:00,
2013-02-19 07:41:00,149.5,99.9,0.00,North,359,5.6,7.9,100,0.00,,SKC,0.53,VWS V14.01,2013-02-19 12:41:00,
2013-02-19 07:43:00,149.5,99.9,0.00,NNE,20,4.8,7.8,100,0.00,,SKC,0.53,VWS V14.01,2013-02-19 12:43:00,
2013-02-19 07:45:00,149.5,99.9,0.00,North,3,7.4,9.0,100,0.00,,SKC,0.53,VWS V14.01,2013-02-19 12:45:00,
2013-02-19 07:46:00,149.5,99.9,0.00,North,4,5.9,7.6,100,0.00,,SKC,0.53,VWS V14.01,2013-02-19 12:46:00,
2013-02-19 07:48:00,149.5,99.9,0.00,North,3,5.0,5.0,100,0.00,,SKC,0.53,VWS V14.01,2013-02-19 12:48:00,
2013-02-19 07:50:00,149.5,99.9,0.00,North,8,8.0,8.3,100,0.00,,SKC,0.53,VWS V14.01,2013-02-19 12:50:00,
2013-02-19 07:51:00,149.5,99.9,0.00,North,10,6.5,7.3,100,0.00,,SKC,0.53,VWS V14.01,2013-02-19 12:51:00,
2013-02-19 07:54:00,149.5,99.9,0.00,North,356,7.7,9.1,100,0.00,,SKC,0.53,VWS V14.01,2013-02-19 12:54:00,
2013-02-19 07:55:00,149.5,99.9,0.00,NNE,15,4.0,6.9,100,0.00,,SKC,0.53,VWS V14.01,2013-02-19 12:55:00,
2013-02-19 07:56:00,149.5,99.9,0.00,NNE,15,3.7,4.0,100,0.00,,SKC,0.53,VWS V14.01,2013-02-19 12:56:00,
2013-02-19 07:59:00,149.5,99.9,0.00,North,6,9.8,9.8,100,0.00,,SKC,0.53,VWS V14.01,2013-02-19 12:59:00,
2013-02-19 08:01:00,149.5,99.9,0.00,North,352,8.2,9.8,100,0.00,,SKC,0.53,VWS V14.01,2013-02-19 13:01:00,
2013-02-19 08:04:00,149.5,99.9,0.00,North,6,6.9,7.6,100,0.00,,SKC,0.53,VWS V14.01,2013-02-19 13:04:00,
2013-02-19 08:06:00,149.5,99.9,0.00,NNE,13,6.2,7.8,100,0.00,,SKC,0.53,VWS V14.01,2013-02-19 13:06:00,
2013-02-19 08:09:00,149.5,99.9,0.00,North,3,7.5,8.2,100,0.00,,SKC,0.53,VWS V14.01,2013-02-19 13:09:00,
2013-02-19 08:11:00,149.5,99.9,0.00,North,11,5.3,8.5,100,0.00,,SKC,0.53,VWS V14.01,2013-02-19 13:11:00,
2013-02-19 08:14:00,149.5,99.9,0.00,NNE,27,5.3,6.4,100,0.00,,SKC,0.53,VWS V14.01,2013-02-19 13:14:00,
2013-02-19 08:16:00,149.5,99.9,0.00,North,6,9.1,9.1,100,0.00,,SKC,0.53,VWS V14.01,2013-02-19 13:16:00,
2013-02-19 08:19:00,149.5,99.9,0.00,NNE,25,6.3,6.5,100,0.00,,SKC,0.53,VWS V14.01,2013-02-19 13:19:00,
2013-02-19 08:21:00,149.5,99.9,0.00,NNE,17,5.4,6.4,100,0.00,,SKC,0.53,VWS V14.01,2013-02-19 13:21:00,
2013-02-19 08:24:00,149.5,99.9,0.00,NNE,17,5.8,6.2,100,0.00,,SKC,0.53,VWS V14.01,2013-02-19 13:24:00,
2013-02-19 08:26:00,149.5,99.9,0.00,NNE,30,5.7,8.0,100,0.00,,SKC,0.53,VWS V14.01,2013-02-19 13:26:00,
2013-02-19 08:29:00,149.5,99.9,0.00,North,359,8.2,9.1,100,0.00,,SKC,0.53,VWS V14.01,2013-02-19 13:29:00,
2013-02-19 08:31:00,149.5,99.9,0.00,NNE,15,8.1,9.8,100,0.00,,SKC,0.53,VWS V14.01,2013-02-19 13:31:00,
2013-02-19 08:32:00,149.5,99.9,0.00,NNE,25,7.0,8.6,100,0.00,,SKC,0.53,VWS V14.01,2013-02-19 13:32:00,
2013-02-19 08:35:00,149.5,99.9,0.00,NNE,14,8.2,13.0,100,0.00,,SKC,0.53,VWS V14.01,2013-02-19 13:35:00,
2013-02-19 08:36:00,149.5,99.9,0.00,NNE,24,7.5,9.6,100,0.00,,SKC,0.53,VWS V14.01,2013-02-19 13:36:00,
2013-02-19 08:37:00,149.5,99.9,0.00,NNE,21,7.2,8.0,100,0.00,,SKC,0.53,VWS V14.01,2013-02-19 13:37:00,
2013-02-19 08:40:00,149.5,99.9,0.00,North,0,7.4,10.8,100,0.00,,SKC,0.53,VWS V14.01,2013-02-19 13:40:00,
2013-02-19 08:41:00,149.5,99.9,0.00,ENE,66,6.9,11.1,100,0.00,,SKC,0.53,VWS V14.01,2013-02-19 13:41:00,
2013-02-19 08:42:00,149.5,99.9,0.00,NE,55,4.8,6.5,100,0.00,,SKC,0.53,VWS V14.01,2013-02-19 13:42:00,
2013-02-19 08:45:00,149.5,99.9,0.00,NE,38,11.5,13.9,100,0.00,,SKC,0.53,VWS V14.01,2013-02-19 13:45:00,
2013-02-19 08:46:00,149.5,99.9,0.00,NNE,32,10.8,15.0,100,0.00,,SKC,0.53,VWS V14.01,2013-02-19 13:46:00,
2013-02-19 08:47:00,149.5,99.9,0.00,NNE,22,9.3,12.4,100,0.00,,SKC,0.53,VWS V14.01,2013-02-19 13:47:00,
2013-02-19 08:50:00,149.5,99.9,0.00,NNE,20,11.7,19.1,100,0.00,,SKC,0.53,VWS V14.01,2013-02-19 13:50:00,
2013-02-19 08:51:00,149.5,99.9,0.00,North,1,15.4,18.0,100,0.00,,SKC,0.53,VWS V14.01,2013-02-19 13:51:00,
2013-02-19 08:52:00,149.5,99.9,0.00,NNE,27,11.2,18.0,100,0.00,,SKC,0.53,VWS V14.01,2013-02-19 13:52:00,
2013-02-19 08:55:00,149.5,99.9,0.00,NNE,21,10.6,12.9,100,0.00,,SKC,0.53,VWS V14.01,2013-02-19 13:55:00,
2013-02-19 08:56:00,149.5,99.9,0.00,NE,39,9.5,13.5,100,0.00,,SKC,0.53,VWS V14.01,2013-02-19 13:56:00,
2013-02-19 08:57:00,149.5,99.9,0.00,NNE,24,7.6,12.3,100,0.00,,SKC,0.53,VWS V14.01,2013-02-19 13:57:00,
2013-02-19 09:00:00,149.5,99.9,0.00,North,7,13.1,13.1,100,0.00,,SKC,0.53,VWS V14.01,2013-02-19 14:00:00,
2013-02-19 09:01:00,149.5,99.9,0.00,North,8,11.3,13.9,100,0.00,,SKC,0.53,VWS V14.01,2013-02-19 14:01:00,
2013-02-19 09:02:00,149.5,99.9,0.00,North,8,11.8,15.2,100,0.00,,SKC,0.53,VWS V14.01,2013-02-19 14:02:00,
2013-02-19 09:03:00,149.5,99.9,0.00,North,7,9.3,14.0,100,0.00,,SKC,0.53,VWS V14.01,2013-02-19 14:03:00,
2013-02-19 09:06:00,149.5,99.9,0.00,NNE,30,13.0,14.9,100,0.00,,SKC,0.53,VWS V14.01,2013-02-19 14:06:00,
2013-02-19 09:07:00,149.5,99.9,0.00,NNE,20,13.3,14.7,100,0.00,,SKC,0.53,VWS V14.01,2013-02-19 14:07:00,
2013-02-19 09:08:00,149.5,99.9,0.00,North,11,12.1,14.0,100,0.00,,SKC,0.53,VWS V14.01,2013-02-19 14:08:00,
2013-02-19 09:11:00,149.5,99.9,0.00,North,10,6.8,12.9,100,0.00,,SKC,0.53,VWS V14.01,2013-02-19 14:11:00,
2013-02-19 09:13:00,149.5,99.9,0.00,NNE,18,6.5,6.5,100,0.00,,SKC,0.53,VWS V14.01,2013-02-19 14:13:00,
2013-02-19 09:16:00,149.5,99.9,0.00,North,10,7.5,9.0,100,0.00,,SKC,0.53,VWS V14.01,2013-02-19 14:16:00,
2013-02-19 09:17:00,149.5,99.9,0.00,NE,41,10.8,10.8,100,0.00,,SKC,0.53,VWS V14.01,2013-02-19 14:17:00,
2013-02-19 09:18:00,149.5,99.9,0.00,NNE,22,6.9,10.1,100,0.00,,SKC,0.53,VWS V14.01,2013-02-19 14:18:00,
2013-02-19 09:21:00,149.5,99.9,0.00,North,4,13.0,16.8,100,0.00,,SKC,0.53,VWS V14.01,2013-02-19 14:21:00,
2013-02-19 09:22:00,149.5,99.9,0.00,NNE,21,12.8,14.9,100,0.00,,SKC,0.53,VWS V14.01,2013-02-19 14:22:00,
2013-02-19 09:23:00,149.5,99.9,0.00,NNE,14,10.7,14.7,100,0.00,,SKC,0.53,VWS V14.01,2013-02-19 14:23:00,
2013-02-19 09:26:00,149.5,99.9,0.00,NE,48,6.3,14.4,100,0.00,,SKC,0.53,VWS V14.01,2013-02-19 14:26:00,
2013-02-19 09:27:00,149.5,99.9,0.00,NNE,30,11.4,13.2,100,0.00,,SKC,0.53,VWS V14.01,2013-02-19 14:27:00,
2013-02-19 09:28:00,149.5,99.9,0.00,North,7,9.6,15.5,100,0.00,,SKC,0.53,VWS V14.01,2013-02-19 14:28:00,
2013-02-19 09:32:00,149.5,99.9,0.00,North,359,12.8,14.3,100,0.00,,SKC,0.53,VWS V14.01,2013-02-19 14:32:00,
2013-02-19 09:33:00,149.5,99.9,0.00,NNE,24,7.3,8.1,100,0.00,,SKC,0.53,VWS V14.01,2013-02-19 14:33:00,
2013-02-19 09:37:00,149.5,99.9,0.00,NE,53,9.1,15.7,100,0.00,,SKC,0.53,VWS V14.01,2013-02-19 14:37:00,
2013-02-19 09:38:00,149.5,99.9,0.00,North,359,7.6,25.6,99,0.00,,SKC,0.53,VWS V14.01,2013-02-19 14:38:00,
2013-02-19 09:42:00,149.5,99.9,0.00,NNE,21,11.3,16.7,99,0.01,,SKC,0.54,VWS V14.01,2013-02-19 14:42:00,
2013-02-19 09:43:00,149.5,99.9,0.00,North,3,18.3,37.7,99,0.01,,SKC,0.54,VWS V14.01,2013-02-19 14:43:00,
2013-02-19 09:47:00,149.5,99.9,0.00,NNE,22,8.6,13.7,99,0.01,,SKC,0.54,VWS V14.01,2013-02-19 14:47:00,
2013-02-19 09:48:00,149.5,99.9,0.00,NNE,27,10.3,28.4,99,0.01,,SKC,0.54,VWS V14.01,2013-02-19 14:48:00,
2013-02-19 09:52:00,149.5,99.9,0.00,NNE,13,18.6,18.6,98,0.01,,SKC,0.54,VWS V14.01,2013-02-19 14:52:00,
2013-02-19 09:53:00,149.5,99.9,0.00,North,6,20.6,20.6,98,0.01,,SKC,0.54,VWS V14.01,2013-02-19 14:53:00,
2013-02-19 09:57:00,149.5,99.9,0.00,NNE,13,10.7,16.8,98,0.01,,SKC,0.54,VWS V14.01,2013-02-19 14:57:00,
2013-02-19 09:58:00,149.5,99.9,0.00,NE,49,9.8,9.8,98,0.01,,SKC,0.54,VWS V14.01,2013-02-19 14:58:00,
2013-02-19 10:02:00,149.5,99.9,0.00,North,10,12.1,12.9,98,0.01,,SKC,0.54,VWS V14.01,2013-02-19 15:02:00,
2013-02-19 10:03:00,149.5,99.9,0.00,North,10,11.1,14.7,98,0.01,,SKC,0.54,VWS V14.01,2013-02-19 15:03:00,
2013-02-19 10:07:00,149.5,99.9,0.00,NE,39,14.2,14.5,98,0.01,,SKC,0.54,VWS V14.01,2013-02-19 15:07:00,
2013-02-19 10:08:00,149.5,99.9,0.00,NE,41,14.6,17.7,98,0.01,,SKC,0.54,VWS V14.01,2013-02-19 15:08:00,
2013-02-19 10:09:00,149.5,99.9,0.00,NNE,32,13.5,16.4,98,0.01,,SKC,0.54,VWS V14.01,2013-02-19 15:09:00,
2013-02-19 10:12:00,149.5,99.9,0.00,North,11,10.3,11.4,98,0.01,,SKC,0.54,VWS V14.01,2013-02-19 15:12:00,
2013-02-19 10:13:00,149.5,99.9,0.00,NE,38,9.3,11.4,98,0.01,,SKC,0.54,VWS V14.01,2013-02-19 15:13:00,
2013-02-19 10:14:00,149.5,99.9,0.00,NNE,32,7.8,11.1,98,0.01,,SKC,0.54,VWS V14.01,2013-02-19 15:14:00,
2013-02-19 10:18:00,149.5,99.9,0.00,NNE,14,13.9,15.0,98,0.01,,SKC,0.54,VWS V14.01,2013-02-19 15:18:00,
2013-02-19 10:19:00,149.5,99.9,0.00,North,3,16.2,17.6,98,0.01,,SKC,0.54,VWS V14.01,2013-02-19 15:19:00,
2013-02-19 10:23:00,149.5,99.9,0.00,NNE,17,16.9,18.4,98,0.01,,SKC,0.54,VWS V14.01,2013-02-19 15:23:00,
2013-02-19 10:24:00,149.5,99.9,0.00,North,8,12.6,16.4,98,0.01,,SKC,0.54,VWS V14.01,2013-02-19 15:24:00,
2013-02-19 10:28:00,149.5,99.9,0.00,NNE,28,16.8,20.0,98,0.01,,SKC,0.54,VWS V14.01,2013-02-19 15:28:00,
2013-02-19 10:29:00,149.5,99.9,0.00,NNE,21,8.2,14.5,98,0.01,,SKC,0.54,VWS V14.01,2013-02-19 15:29:00,
2013-02-19 10:33:00,149.5,99.9,0.00,NE,35,9.6,11.6,98,0.01,,SKC,0.54,VWS V14.01,2013-02-19 15:33:00,
2013-02-19 10:34:00,149.5,99.9,0.00,NNE,22,10.6,11.4,98,0.01,,SKC,0.54,VWS V14.01,2013-02-19 15:34:00,
2013-02-19 10:38:00,149.5,99.9,0.00,NE,42,9.9,30.9,97,0.01,,SKC,0.54,VWS V14.01,2013-02-19 15:38:00,
2013-02-19 10:39:00,149.5,99.9,0.00,NNE,17,8.2,11.0,97,0.01,,SKC,0.54,VWS V14.01,2013-02-19 15:39:00,
2013-02-19 10:43:00,149.5,99.9,0.00,North,11,10.6,15.2,96,0.00,,SKC,0.54,VWS V14.01,2013-02-19 15:43:00,
2013-02-19 10:44:00,149.5,99.9,0.00,NNE,20,6.1,6.8,96,0.00,,SKC,0.54,VWS V14.01,2013-02-19 15:44:00,
2013-02-19 10:48:00,149.5,99.9,0.00,NNE,32,8.0,24.9,96,0.00,,SKC,0.54,VWS V14.01,2013-02-19 15:48:00,
2013-02-19 10:49:00,149.5,99.9,0.00,ENE,72,9.6,9.6,96,0.00,,SKC,0.54,VWS V14.01,2013-02-19 15:49:00,
2013-02-19 10:50:00,149.5,99.9,0.00,NNE,28,6.1,11.1,96,0.00,,SKC,0.54,VWS V14.01,2013-02-19 15:50:00,
2013-02-19 10:53:00,149.5,99.9,0.00,NNE,20,6.2,10.6,96,0.00,,SKC,0.54,VWS V14.01,2013-02-19 15:53:00,
2013-02-19 10:54:00,149.5,99.9,0.00,NE,34,10.1,10.1,96,0.00,,SKC,0.54,VWS V14.01,2013-02-19 15:54:00,
2013-02-19 10:55:00,149.5,99.9,0.00,NE,48,14.9,19.9,94,0.00,,SKC,0.54,VWS V14.01,2013-02-19 15:55:00,
2013-02-19 10:58:00,149.5,99.9,0.00,NE,53,13.0,21.1,92,0.00,,SKC,0.54,VWS V14.01,2013-02-19 15:58:00,
2013-02-19 10:59:00,149.5,99.9,0.00,NE,35,13.6,16.3,92,0.00,,SKC,0.54,VWS V14.01,2013-02-19 15:59:00,
2013-02-19 11:00:00,149.5,99.9,0.00,ENE,58,4.1,17.8,92,0.00,,SKC,0.54,VWS V14.01,2013-02-19 16:00:00,
2013-02-19 11:03:00,149.5,99.9,0.00,NE,41,5.0,18.5,91,0.00,,SKC,0.54,VWS V14.01,2013-02-19 16:03:00,
2013-02-19 11:04:00,149.5,99.9,0.00,NE,49,11.2,13.7,92,0.00,,SKC,0.54,VWS V14.01,2013-02-19 16:04:00,
2013-02-19 11:05:00,149.5,99.9,0.00,North,4,8.7,14.8,91,0.00,,SKC,0.54,VWS V14.01,2013-02-19 16:05:00,
2013-02-19 11:08:00,149.5,99.9,0.00,NE,48,10.0,17.0,91,0.00,,SKC,0.54,VWS V14.01,2013-02-19 16:08:00,
2013-02-19 11:09:00,149.5,99.9,0.00,NNE,18,6.6,14.8,91,0.00,,SKC,0.54,VWS V14.01,2013-02-19 16:09:00,
2013-02-19 11:10:00,149.5,99.9,0.00,NNE,14,8.2,10.6,91,0.00,,SKC,0.54,VWS V14.01,2013-02-19 16:10:00,
2013-02-19 11:13:00,149.5,99.9,0.00,North,8,6.7,18.6,92,0.00,,SKC,0.54,VWS V14.01,2013-02-19 16:13:00,
2013-02-19 11:14:00,149.5,99.9,0.00,North,349,10.6,28.0,91,0.00,,SKC,0.54,VWS V14.01,2013-02-19 16:14:00,
2013-02-19 11:15:00,149.5,99.9,0.00,North,4,10.3,39.5,91,0.00,,SKC,0.54,VWS V14.01,2013-02-19 16:15:00,
2013-02-19 11:18:00,149.5,99.9,0.00,North,359,13.2,36.1,89,0.00,,SKC,0.54,VWS V14.01,2013-02-19 16:18:00,
2013-02-19 11:19:00,149.5,99.9,0.00,NE,35,12.9,36.6,89,0.00,,SKC,0.54,VWS V14.01,2013-02-19 16:19:00,
2013-02-19 11:20:00,149.5,99.9,0.00,NNE,28,11.2,18.3,90,0.00,,SKC,0.54,VWS V14.01,2013-02-19 16:20:00,
2013-02-19 11:21:00,149.5,99.9,0.00,North,11,10.8,25.8,89,0.00,,SKC,0.54,VWS V14.01,2013-02-19 16:21:00,
2013-02-19 11:24:00,149.5,99.9,0.00,NE,35,12.5,20.8,88,0.00,,SKC,0.54,VWS V14.01,2013-02-19 16:24:00,
2013-02-19 11:25:00,149.5,99.9,0.00,NNE,18,4.2,15.5,87,0.00,,SKC,0.54,VWS V14.01,2013-02-19 16:25:00,
2013-02-19 11:26:00,149.5,99.9,0.00,North,359,26.0,37.6,86,0.00,,SKC,0.54,VWS V14.01,2013-02-19 16:26:00,
2013-02-19 11:29:00,149.5,99.9,0.00,NE,35,15.3,15.8,84,0.00,,SKC,0.54,VWS V14.01,2013-02-19 16:29:00,
2013-02-19 11:30:00,149.5,99.9,0.00,NNW,346,22.7,22.7,85,0.00,,SKC,0.54,VWS V14.01,2013-02-19 16:30:00,
2013-02-19 11:31:00,149.5,99.9,0.00,North,359,8.6,23.2,85,0.00,,SKC,0.54,VWS V14.01,2013-02-19 16:31:00,
2013-02-19 11:34:00,149.5,99.9,0.00,NE,45,8.9,11.6,85,0.00,,SKC,0.54,VWS V14.01,2013-02-19 16:34:00,
2013-02-19 11:35:00,149.5,99.9,0.00,NE,56,11.7,15.7,84,0.00,,SKC,0.54,VWS V14.01,2013-02-19 16:35:00,
2013-02-19 11:36:00,149.5,99.9,0.00,NNE,20,13.5,17.2,83,0.00,,SKC,0.54,VWS V14.01,2013-02-19 16:36:00,
2013-02-19 11:39:00,149.5,99.9,0.00,NNE,18,13.4,20.1,83,0.00,,SKC,0.54,VWS V14.01,2013-02-19 16:39:00,
2013-02-19 11:40:00,149.5,99.9,0.00,NE,34,8.4,13.5,82,0.00,,SKC,0.54,VWS V14.01,2013-02-19 16:40:00,
2013-02-19 11:41:00,149.5,99.9,0.00,ENE,68,7.3,14.0,82,0.00,,SKC,0.54,VWS V14.01,2013-02-19 16:41:00,
2013-02-19 11:44:00,149.5,99.9,0.00,East,87,6.2,11.6,82,0.00,,SKC,0.54,VWS V14.01,2013-02-19 16:44:00,
2013-02-19 11:45:00,149.5,99.9,0.00,ENE,70,5.3,11.9,82,0.00,,SKC,0.54,VWS V14.01,2013-02-19 16:45:00,
2013-02-19 11:46:00,149.5,99.9,0.00,ENE,58,4.3,12.7,82,0.00,,SKC,0.54,VWS V14.01,2013-02-19 16:46:00,
2013-02-19 11:49:00,149.5,99.9,0.00,NE,37,10.2,13.8,82,0.00,,SKC,0.54,VWS V14.01,2013-02-19 16:49:00,
2013-02-19 11:50:00,149.5,99.9,0.00,NNE,14,7.0,8.8,82,0.00,,SKC,0.54,VWS V14.01,2013-02-19 16:50:00,
2013-02-19 11:51:00,149.5,99.9,0.00,North,6,11.2,13.5,82,0.00,,SKC,0.54,VWS V14.01,2013-02-19 16:51:00,
2013-02-19 11:54:00,149.5,99.9,0.00,North,10,13.0,17.1,80,0.00,,SKC,0.54,VWS V14.01,2013-02-19 16:54:00,
2013-02-19 11:55:00,149.5,99.9,0.00,North,8,12.1,12.1,80,0.00,,SKC,0.54,VWS V14.01,2013-02-19 16:55:00,
2013-02-19 11:56:00,149.5,99.9,0.00,ENE,58,9.3,12.6,80,0.00,,SKC,0.54,VWS V14.01,2013-02-19 16:56:00,
2013-02-19 11:59:00,149.5,99.9,0.00,North,6,12.9,33.1,78,0.00,,SKC,0.54,VWS V14.01,2013-02-19 16:59:00,
2013-02-19 12:00:00,149.5,99.9,0.00,NNE,18,16.0,16.0,77,0.00,,SKC,0.54,VWS V14.01,2013-02-19 17:00:00,
2013-02-19 12:01:00,149.5,99.9,0.00,NE,52,16.2,16.2,77,0.00,,SKC,0.54,VWS V14.01,2013-02-19 17:01:00,
2013-02-19 12:04:00,149.5,99.9,0.00,NE,35,8.7,17.2,76,0.00,,SKC,0.54,VWS V14.01,2013-02-19 17:04:00,
2013-02-19 12:06:00,149.5,99.9,0.00,NNE,17,13.5,18.1,74,0.00,,SKC,0.54,VWS V14.01,2013-02-19 17:06:00,
2013-02-19 12:09:00,149.5,99.9,0.00,NNE,20,13.9,20.3,75,0.00,,SKC,0.54,VWS V14.01,2013-02-19 17:09:00,
2013-02-19 12:11:00,149.5,99.9,0.00,NE,39,15.5,24.2,72,0.00,,SKC,0.54,VWS V14.01,2013-02-19 17:11:00,
2013-02-19 12:14:00,149.5,99.9,0.00,NNE,20,10.3,20.6,70,0.00,,SKC,0.54,VWS V14.01,2013-02-19 17:14:00,
2013-02-19 12:16:00,149.5,99.9,0.00,NNE,18,17.3,19.6,70,0.00,,SKC,0.54,VWS V14.01,2013-02-19 17:16:00,
2013-02-19 12:19:00,149.5,99.9,0.00,North,8,9.2,9.9,70,0.00,,SKC,0.54,VWS V14.01,2013-02-19 17:19:00,
2013-02-19 12:21:00,149.5,99.9,0.00,NNE,18,12.6,17.6,71,0.00,,SKC,0.54,VWS V14.01,2013-02-19 17:21:00,
2013-02-19 12:22:00,149.5,99.9,0.00,North,11,15.8,44.2,70,0.00,,SKC,0.54,VWS V14.01,2013-02-19 17:22:00,
2013-02-19 12:24:00,149.5,99.9,0.00,North,11,15.9,33.3,67,0.00,,SKC,0.54,VWS V14.01,2013-02-19 17:24:00,
2013-02-19 12:26:00,149.5,99.9,0.00,South,188,30.4,38.5,68,0.00,,SKC,0.54,VWS V14.01,2013-02-19 17:26:00,
2013-02-19 12:27:00,149.5,99.9,0.00,NNE,27,8.0,12.7,68,0.00,,SKC,0.54,VWS V14.01,2013-02-19 17:27:00,
2013-02-19 12:30:00,149.5,99.9,0.00,North,1,14.2,18.8,67,0.00,,SKC,0.54,VWS V14.01,2013-02-19 17:30:00,
2013-02-19 12:31:00,149.5,99.9,0.00,North,11,11.5,15.3,68,0.00,,SKC,0.54,VWS V14.01,2013-02-19 17:31:00,
2013-02-19 12:32:00,149.5,99.9,0.00,North,0,12.7,12.7,68,0.00,,SKC,0.54,VWS V14.01,2013-02-19 17:32:00,
2013-02-19 12:35:00,149.5,99.9,0.00,NE,34,8.8,9.7,69,0.00,,SKC,0.54,VWS V14.01,2013-02-19 17:35:00,
2013-02-19 12:36:00,149.5,99.9,0.00,NNE,25,10.7,23.0,67,0.00,,SKC,0.54,VWS V14.01,2013-02-19 17:36:00,
2013-02-19 12:37:00,149.5,99.9,0.00,NNE,13,13.6,14.7,67,0.00,,SKC,0.54,VWS V14.01,2013-02-19 17:37:00,
2013-02-19 12:40:00,149.5,99.9,0.00,NNE,14,15.5,41.7,67,0.00,,SKC,0.54,VWS V14.01,2013-02-19 17:40:00,
2013-02-19 12:41:00,149.5,99.9,0.00,NNE,27,12.6,12.8,68,0.00,,SKC,0.54,VWS V14.01,2013-02-19 17:41:00,
2013-02-19 12:42:00,149.5,99.9,0.00,NE,42,10.4,12.8,68,0.00,,SKC,0.54,VWS V14.01,2013-02-19 17:42:00,
2013-02-19 12:45:00,149.5,99.9,0.00,North,359,8.0,21.4,66,0.00,,SKC,0.54,VWS V14.01,2013-02-19 17:45:00,
2013-02-19 12:46:00,149.5,99.9,0.00,NNE,21,13.2,13.4,67,0.00,,SKC,0.54,VWS V14.01,2013-02-19 17:46:00,
2013-02-19 12:47:00,149.5,99.9,0.00,NNE,28,14.7,14.7,67,0.00,,SKC,0.54,VWS V14.01,2013-02-19 17:47:00,
2013-02-19 12:50:00,149.5,99.9,0.00,North,11,14.1,19.6,66,0.00,,SKC,0.54,VWS V14.01,2013-02-19 17:50:00,
2013-02-19 12:51:00,149.5,99.9,0.00,NNE,20,11.9,13.5,66,0.00,,SKC,0.54,VWS V14.01,2013-02-19 17:51:00,
2013-02-19 12:52:00,149.5,99.9,0.00,NE,34,10.6,13.6,66,0.00,,SKC,0.54,VWS V14.01,2013-02-19 17:52:00,
2013-02-19 12:55:00,149.5,99.9,0.00,NNE,13,14.2,33.2,65,0.00,,SKC,0.54,VWS V14.01,2013-02-19 17:55:00,
2013-02-19 12:56:00,149.5,99.9,0.00,NNE,21,8.8,11.5,65,0.00,,SKC,0.54,VWS V14.01,2013-02-19 17:56:00,
2013-02-19 12:57:00,149.5,99.9,0.00,NNE,20,13.4,20.0,65,0.00,,SKC,0.54,VWS V14.01,2013-02-19 17:57:00,
2013-02-19 13:00:00,149.5,99.9,0.00,NNE,22,10.8,15.0,65,0.00,,SKC,0.54,VWS V14.01,2013-02-19 18:00:00,
2013-02-19 13:01:00,149.5,99.9,0.00,NE,35,13.6,15.5,66,0.00,,SKC,0.54,VWS V14.01,2013-02-19 18:01:00,
2013-02-19 13:02:00,149.5,99.9,0.00,NE,49,15.8,25.5,65,0.00,,SKC,0.54,VWS V14.01,2013-02-19 18:02:00,
2013-02-19 13:05:00,149.5,99.9,0.00,North,3,18.0,20.4,61,0.00,,SKC,0.54,VWS V14.01,2013-02-19 18:05:00,
2013-02-19 13:06:00,149.5,99.9,0.00,NE,46,12.3,17.3,61,0.00,,SKC,0.54,VWS V14.01,2013-02-19 18:06:00,
2013-02-19 13:07:00,149.5,99.9,0.00,North,6,18.5,21.9,61,0.00,,SKC,0.54,VWS V14.01,2013-02-19 18:07:00,
2013-02-19 13:10:00,149.5,99.9,0.00,NE,38,14.5,16.9,63,0.00,,SKC,0.54,VWS V14.01,2013-02-19 18:10:00,
2013-02-19 13:12:00,149.5,99.9,0.00,North,4,12.0,12.0,62,0.00,,SKC,0.54,VWS V14.01,2013-02-19 18:12:00,
2013-02-19 13:13:00,149.5,99.9,0.00,NNW,343,9.3,13.6,62,0.00,,SKC,0.54,VWS V14.01,2013-02-19 18:13:00,
2013-02-19 13:15:00,149.5,99.9,0.00,NNE,13,7.0,7.0,61,0.00,,SKC,0.54,VWS V14.01,2013-02-19 18:15:00,
2013-02-19 13:17:00,149.5,99.9,0.00,North,10,16.6,17.5,62,0.00,,SKC,0.54,VWS V14.01,2013-02-19 18:17:00,
2013-02-19 13:18:00,149.5,99.9,0.00,ENE,70,9.3,17.0,61,0.00,,SKC,0.54,VWS V14.01,2013-02-19 18:18:00,
2013-02-19 13:20:00,149.5,99.9,0.00,NNW,345,13.7,17.9,62,0.00,,SKC,0.54,VWS V14.01,2013-02-19 18:20:00,
2013-02-19 13:22:00,149.5,99.9,0.00,NE,37,8.6,16.8,61,0.00,,SKC,0.54,VWS V14.01,2013-02-19 18:22:00,
2013-02-19 13:23:00,149.5,99.9,0.00,ENE,65,10.0,14.5,61,0.00,,SKC,0.54,VWS V14.01,2013-02-19 18:23:00,
2013-02-19 13:26:00,149.5,99.9,0.00,NNE,25,13.4,15.5,59,0.00,,SKC,0.54,VWS V14.01,2013-02-19 18:26:00,
2013-02-19 13:27:00,149.5,99.9,0.00,North,359,6.4,10.3,60,0.00,,SKC,0.54,VWS V14.01,2013-02-19 18:27:00,
2013-02-19 13:28:00,149.5,99.9,0.00,NNE,28,16.0,16.8,59,0.00,,SKC,0.54,VWS V14.01,2013-02-19 18:28:00,
2013-02-19 13:31:00,149.5,99.9,0.00,ENE,66,9.4,9.5,58,0.00,,SKC,0.54,VWS V14.01,2013-02-19 18:31:00,
2013-02-19 13:32:00,149.5,99.9,0.00,NNE,18,15.0,18.8,57,0.00,,SKC,0.54,VWS V14.01,2013-02-19 18:32:00,
2013-02-19 13:33:00,149.5,99.9,0.00,North,8,10.5,16.5,56,0.00,,SKC,0.54,VWS V14.01,2013-02-19 18:33:00,
2013-02-19 13:36:00,149.5,99.9,0.00,NNE,25,9.8,11.4,57,0.00,,SKC,0.54,VWS V14.01,2013-02-19 18:36:00,
2013-02-19 13:37:00,149.5,99.9,0.00,North,7,12.7,15.3,55,0.00,,SKC,0.54,VWS V14.01,2013-02-19 18:37:00,
2013-02-19 13:38:00,149.5,99.9,0.00,NE,44,10.4,15.3,55,0.00,,SKC,0.54,VWS V14.01,2013-02-19 18:38:00,
2013-02-19 13:41:00,149.5,99.9,0.00,NE,45,9.3,11.7,55,0.00,,SKC,0.54,VWS V14.01,2013-02-19 18:41:00,
2013-02-19 13:42:00,149.5,99.9,0.00,NNE,31,3.0,3.0,56,0.00,,SKC,0.54,VWS V14.01,2013-02-19 18:42:00,
2013-02-19 13:43:00,149.5,99.9,0.00,NNE,25,11.1,15.3,57,0.00,,SKC,0.54,VWS V14.01,2013-02-19 18:43:00,
2013-02-19 13:46:00,149.5,99.9,0.00,NE,38,9.9,12.2,55,0.00,,SKC,0.54,VWS V14.01,2013-02-19 18:46:00,
2013-02-19 13:47:00,149.5,99.9,0.00,NE,48,8.5,9.1,52,0.00,,SKC,0.54,VWS V14.01,2013-02-19 18:47:00,
2013-02-19 13:48:00,149.5,99.9,0.00,NNE,28,13.5,14.8,52,0.00,,SKC,0.54,VWS V14.01,2013-02-19 18:48:00,
2013-02-19 13:51:00,149.5,99.9,0.00,ENE,68,6.5,12.3,51,0.00,,SKC,0.54,VWS V14.01,2013-02-19 18:51:00,
2013-02-19 13:52:00,149.5,99.9,0.00,ENE,60,8.3,10.9,51,0.00,,SKC,0.54,VWS V14.01,2013-02-19 18:52:00,
2013-02-19 13:53:00,149.5,99.9,0.00,ENE,66,7.9,11.9,51,0.00,,SKC,0.54,VWS V14.01,2013-02-19 18:53:00,
2013-02-19 13:56:00,149.5,99.9,0.00,East,96,6.7,8.0,53,0.00,,SKC,0.54,VWS V14.01,2013-02-19 18:56:00,
2013-02-19 13:57:00,149.5,99.9,0.00,NNE,28,13.6,17.7,53,0.00,,SKC,0.54,VWS V14.01,2013-02-19 18:57:00,
2013-02-19 13:58:00,149.5,99.9,0.00,NNE,27,13.2,17.7,51,0.00,,SKC,0.54,VWS V14.01,2013-02-19 18:58:00,
2013-02-19 14:01:00,149.5,99.9,0.00,ENE,62,9.1,14.4,49,0.00,,SKC,0.54,VWS V14.01,2013-02-19 19:01:00,
2013-02-19 14:03:00,149.5,99.9,0.00,NE,42,12.8,17.1,46,0.00,,SKC,0.54,VWS V14.01,2013-02-19 19:03:00,
2013-02-19 14:04:00,149.5,99.9,0.00,NE,49,7.5,11.2,47,0.00,,SKC,0.54,VWS V14.01,2013-02-19 19:04:00,
2013-02-19 14:06:00,149.5,99.9,0.00,NNE,32,12.2,18.0,48,0.00,,SKC,0.54,VWS V14.01,2013-02-19 19:06:00,
2013-02-19 14:08:00,149.5,99.9,0.00,ENE,66,9.5,13.3,48,0.00,,SKC,0.54,VWS V14.01,2013-02-19 19:08:00,
2013-02-19 14:09:00,149.5,99.9,0.00,NNE,13,10.6,15.8,49,0.00,,SKC,0.54,VWS V14.01,2013-02-19 19:09:00,
2013-02-19 14:11:00,149.5,99.9,0.00,NE,52,6.6,7.5,49,0.00,,SKC,0.54,VWS V14.01,2013-02-19 19:11:00,
2013-02-19 14:13:00,149.5,99.9,0.00,East,89,4.2,8.6,49,0.00,,SKC,0.54,VWS V14.01,2013-02-19 19:13:00,
2013-02-19 14:14:00,149.5,99.9,0.00,NE,35,9.7,15.0,50,0.00,,SKC,0.54,VWS V14.01,2013-02-19 19:14:00,
2013-02-19 14:16:00,149.5,99.9,0.00,NE,42,6.4,7.0,48,0.00,,SKC,0.54,VWS V14.01,2013-02-19 19:16:00,
2013-02-19 14:18:00,149.5,99.9,0.00,NE,55,7.3,16.9,48,0.00,,SKC,0.54,VWS V14.01,2013-02-19 19:18:00,
2013-02-19 14:19:00,149.5,99.9,0.00,NE,34,15.2,21.0,47,0.00,,SKC,0.54,VWS V14.01,2013-02-19 19:19:00,
2013-02-19 14:22:00,149.5,99.9,0.00,North,3,13.4,21.2,44,0.00,,SKC,0.54,VWS V14.01,2013-02-19 19:22:00,
2013-02-19 14:23:00,149.5,99.9,0.00,NNE,27,12.3,23.2,42,0.00,,SKC,0.54,VWS V14.01,2013-02-19 19:23:00,
2013-02-19 14:24:00,149.5,99.9,0.00,NE,39,9.3,19.6,43,0.00,,SKC,0.54,VWS V14.01,2013-02-19 19:24:00,
2013-02-19 14:27:00,149.5,99.9,0.00,NNE,24,12.3,21.1,43,0.00,,SKC,0.54,VWS V14.01,2013-02-19 19:27:00,
2013-02-19 14:28:00,149.5,99.9,0.00,NNE,14,13.3,20.0,43,0.00,,SKC,0.54,VWS V14.01,2013-02-19 19:28:00,
2013-02-19 14:29:00,149.5,99.9,0.00,NNE,31,14.5,22.9,44,0.00,,SKC,0.54,VWS V14.01,2013-02-19 19:29:00,
2013-02-19 14:32:00,149.5,99.9,0.00,NNE,27,15.2,21.3,42,0.00,,SKC,0.54,VWS V14.01,2013-02-19 19:32:00,
2013-02-19 14:33:00,149.5,99.9,0.00,North,350,16.7,18.5,43,0.00,,SKC,0.54,VWS V14.01,2013-02-19 19:33:00,
2013-02-19 14:34:00,149.5,99.9,0.00,NNE,21,18.0,21.1,43,0.00,,SKC,0.54,VWS V14.01,2013-02-19 19:34:00,
2013-02-19 14:35:00,149.5,99.9,0.00,North,10,7.7,11.6,42,0.00,,SKC,0.54,VWS V14.01,2013-02-19 19:35:00,
2013-02-19 14:37:00,149.5,99.9,0.00,NE,37,11.6,21.7,42,0.00,,SKC,0.54,VWS V14.01,2013-02-19 19:37:00,
2013-02-19 14:38:00,149.5,99.9,0.00,North,6,10.8,20.7,44,0.00,,SKC,0.54,VWS V14.01,2013-02-19 19:38:00,
2013-02-19 14:39:00,149.5,99.9,0.00,NNE,30,12.0,14.1,45,0.00,,SKC,0.54,VWS V14.01,2013-02-19 19:39:00,
2013-02-19 14:40:00,149.5,99.9,0.00,NE,34,12.2,12.2,45,0.00,,SKC,0.54,VWS V14.01,2013-02-19 19:40:00,
2013-02-19 14:42:00,149.5,99.9,0.00,NNE,20,10.3,15.7,44,0.00,,SKC,0.54,VWS V14.01,2013-02-19 19:42:00,
2013-02-19 14:43:00,149.5,99.9,0.00,NNE,31,12.7,19.1,44,0.00,,SKC,0.54,VWS V14.01,2013-02-19 19:43:00,
2013-02-19 14:44:00,149.5,99.9,0.00,NNE,22,15.1,17.2,42,0.00,,SKC,0.54,VWS V14.01,2013-02-19 19:44:00,
2013-02-19 14:45:00,149.5,99.9,0.00,NNE,32,11.7,15.9,42,0.00,,SKC,0.54,VWS V14.01,2013-02-19 19:45:00,
2013-02-19 14:47:00,149.5,99.9,0.00,North,7,13.9,20.8,43,0.00,,SKC,0.54,VWS V14.01,2013-02-19 19:47:00,
2013-02-19 14:48:00,149.5,99.9,0.00,NE,55,7.7,8.8,42,0.00,,SKC,0.54,VWS V14.01,2013-02-19 19:48:00,
2013-02-19 14:49:00,149.5,99.9,0.00,NE,46,9.6,9.6,43,0.00,,SKC,0.54,VWS V14.01,2013-02-19 19:49:00,
2013-02-19 14:50:00,149.5,99.9,0.00,WNW,298,9.6,13.9,43,0.00,,SKC,0.54,VWS V14.01,2013-02-19 19:50:00,
2013-02-19 14:52:00,149.5,99.9,0.00,NNE,27,8.0,9.0,44,0.00,,SKC,0.54,VWS V14.01,2013-02-19 19:52:00,
2013-02-19 14:53:00,149.5,99.9,0.00,NNE,24,9.3,10.4,43,0.00,,SKC,0.54,VWS V14.01,2013-02-19 19:53:00,
2013-02-19 14:54:00,149.5,99.9,0.00,NNE,32,11.4,13.3,42,0.00,,SKC,0.54,VWS V14.01,2013-02-19 19:54:00,
2013-02-19 14:55:00,149.5,99.9,0.00,NE,41,12.8,14.1,42,0.00,,SKC,0.54,VWS V14.01,2013-02-19 19:55:00,
2013-02-19 14:57:00,149.5,99.9,0.00,NNE,17,11.8,16.3,42,0.00,,SKC,0.54,VWS V14.01,2013-02-19 19:57:00,
2013-02-19 14:59:00,149.5,99.9,0.00,NNE,17,17.0,17.3,41,0.00,,SKC,0.54,VWS V14.01,2013-02-19 19:59:00,
2013-02-19 15:00:00,149.5,99.9,0.00,ENE,60,7.5,36.9,41,0.00,,SKC,0.54,VWS V14.01,2013-02-19 20:00:00,
2013-02-19 15:03:00,149.5,99.9,0.00,NNE,22,13.9,15.0,44,0.00,,SKC,0.54,VWS V14.01,2013-02-19 20:03:00,
2013-02-19 15:04:00,149.5,99.9,0.00,NE,37,13.4,13.4,44,0.00,,SKC,0.54,VWS V14.01,2013-02-19 20:04:00,
2013-02-19 15:05:00,149.5,99.9,0.00,North,8,21.4,21.4,42,0.00,,SKC,0.54,VWS V14.01,2013-02-19 20:05:00,
2013-02-19 15:08:00,149.5,99.9,0.00,NNE,20,9.7,15.3,42,0.00,,SKC,0.54,VWS V14.01,2013-02-19 20:08:00,
2013-02-19 15:09:00,149.5,99.9,0.00,North,354,17.5,17.5,43,0.00,,SKC,0.54,VWS V14.01,2013-02-19 20:09:00,
2013-02-19 15:10:00,149.5,99.9,0.00,North,6,12.6,12.6,43,0.00,,SKC,0.54,VWS V14.01,2013-02-19 20:10:00,
2013-02-19 15:13:00,149.5,99.9,0.00,NNE,17,9.1,12.9,44,0.00,,SKC,0.54,VWS V14.01,2013-02-19 20:13:00,
2013-02-19 15:14:00,149.5,99.9,0.00,NE,37,7.5,14.5,45,0.00,,SKC,0.54,VWS V14.01,2013-02-19 20:14:00,
2013-02-19 15:15:00,149.5,99.9,0.00,NE,39,9.1,12.7,45,0.00,,SKC,0.54,VWS V14.01,2013-02-19 20:15:00,
2013-02-19 15:18:00,149.5,99.9,0.00,NNE,27,11.2,34.9,45,0.00,,SKC,0.54,VWS V14.01,2013-02-19 20:18:00,
2013-02-19 15:19:00,149.5,99.9,0.00,NNE,22,19.1,19.1,46,0.00,,SKC,0.54,VWS V14.01,2013-02-19 20:19:00,
2013-02-19 15:20:00,149.5,99.9,0.00,NE,38,12.6,19.6,45,0.00,,SKC,0.54,VWS V14.01,2013-02-19 20:20:00,
2013-02-19 15:23:00,149.5,99.9,0.00,NNE,28,13.1,15.0,47,0.00,,SKC,0.54,VWS V14.01,2013-02-19 20:23:00,
2013-02-19 15:24:00,149.5,99.9,0.00,NE,49,7.8,18.6,47,0.00,,SKC,0.54,VWS V14.01,2013-02-19 20:24:00,
2013-02-19 15:25:00,149.5,99.9,0.00,ENE,66,4.4,11.0,47,0.00,,SKC,0.54,VWS V14.01,2013-02-19 20:25:00,
2013-02-19 15:28:00,149.5,99.9,0.00,North,8,8.9,12.7,47,0.00,,SKC,0.54,VWS V14.01,2013-02-19 20:28:00,
2013-02-19 15:29:00,149.5,99.9,0.00,NNE,27,6.3,15.6,46,0.00,,SKC,0.54,VWS V14.01,2013-02-19 20:29:00,
2013-02-19 15:30:00,149.5,99.9,0.00,ENE,63,8.9,26.0,46,0.00,,SKC,0.54,VWS V14.01,2013-02-19 20:30:00,
2013-02-19 15:33:00,149.5,99.9,0.00,North,7,8.5,16.0,45,0.00,,SKC,0.54,VWS V14.01,2013-02-19 20:33:00,
2013-02-19 15:34:00,149.5,99.9,0.00,NE,48,17.6,40.9,43,0.00,,SKC,0.54,VWS V14.01,2013-02-19 20:34:00,
2013-02-19 15:35:00,149.5,99.9,0.00,North,6,11.5,21.6,42,0.00,,SKC,0.54,VWS V14.01,2013-02-19 20:35:00,
2013-02-19 15:38:00,149.5,99.9,0.00,North,11,9.8,22.2,42,0.00,,SKC,0.54,VWS V14.01,2013-02-19 20:38:00,
2013-02-19 15:39:00,149.5,99.9,0.00,NNE,22,16.7,25.1,43,0.00,,SKC,0.54,VWS V14.01,2013-02-19 20:39:00,
2013-02-19 15:40:00,149.5,99.9,0.00,NE,35,15.7,17.2,43,0.00,,SKC,0.54,VWS V14.01,2013-02-19 20:40:00,
2013-02-19 15:43:00,149.5,99.9,0.00,NNE,22,13.0,13.3,43,0.00,,SKC,0.54,VWS V14.01,2013-02-19 20:43:00,
2013-02-19 15:44:00,149.5,99.9,0.00,NNE,32,10.7,13.3,44,0.00,,SKC,0.54,VWS V14.01,2013-02-19 20:44:00,
2013-02-19 15:45:00,149.5,99.9,0.00,NE,48,12.7,18.0,44,0.00,,SKC,0.54,VWS V14.01,2013-02-19 20:45:00,
2013-02-19 15:46:00,149.5,99.9,0.00,North,11,13.9,13.9,44,0.00,,SKC,0.54,VWS V14.01,2013-02-19 20:46:00,
2013-02-19 15:49:00,149.5,99.9,0.00,NNE,15,17.9,19.7,43,0.00,,SKC,0.54,VWS V14.01,2013-02-19 20:49:00,
2013-02-19 15:50:00,149.5,99.9,0.00,NNE,22,21.9,21.9,43,0.00,,SKC,0.54,VWS V14.01,2013-02-19 20:50:00,
2013-02-19 15:51:00,149.5,99.9,0.00,NNE,30,19.9,21.9,43,0.00,,SKC,0.54,VWS V14.01,2013-02-19 20:51:00,
2013-02-19 15:54:00,149.5,99.9,0.00,NNE,15,10.9,11.1,42,0.00,,SKC,0.54,VWS V14.01,2013-02-19 20:54:00,
2013-02-19 15:56:00,149.5,99.9,0.00,North,8,16.1,19.1,41,0.00,,SKC,0.54,VWS V14.01,2013-02-19 20:56:00,
2013-02-19 15:59:00,149.5,99.9,0.00,NNE,17,16.7,16.8,42,0.00,,SKC,0.54,VWS V14.01,2013-02-19 20:59:00,
2013-02-19 16:00:00,149.5,99.9,0.00,North,11,21.2,24.1,42,0.00,,SKC,0.54,VWS V14.01,2013-02-19 21:00:00,
2013-02-19 16:01:00,149.5,99.9,0.00,NNE,24,14.0,20.2,39,0.00,,SKC,0.54,VWS V14.01,2013-02-19 21:01:00,
2013-02-19 16:05:00,149.5,99.9,0.00,ENE,66,7.1,7.1,40,0.00,,SKC,0.54,VWS V14.01,2013-02-19 21:05:00,
2013-02-19 16:06:00,149.5,99.9,0.00,ENE,60,9.2,17.1,40,0.00,,SKC,0.54,VWS V14.01,2013-02-19 21:06:00,
2013-02-19 16:10:00,149.5,99.9,0.00,NE,38,11.1,11.1,40,0.00,,SKC,0.54,VWS V14.01,2013-02-19 21:10:00,
2013-02-19 16:11:00,149.5,99.9,0.00,NNE,25,13.7,17.5,40,0.00,,SKC,0.54,VWS V14.01,2013-02-19 21:11:00,
2013-02-19 16:15:00,149.5,99.9,0.00,NNE,17,9.6,15.2,40,0.00,,SKC,0.54,VWS V14.01,2013-02-19 21:15:00,
2013-02-19 16:16:00,149.5,99.9,0.00,NNE,32,6.5,8.2,40,0.00,,SKC,0.54,VWS V14.01,2013-02-19 21:16:00,
2013-02-19 16:17:00,149.5,99.9,0.00,NE,38,14.8,14.8,40,0.00,,SKC,0.54,VWS V14.01,2013-02-19 21:17:00,
2013-02-19 16:20:00,149.5,99.9,0.00,NNE,30,8.0,12.1,39,0.00,,SKC,0.54,VWS V14.01,2013-02-19 21:20:00,
2013-02-19 16:21:00,149.5,99.9,0.00,NE,53,6.6,9.7,40,0.00,,SKC,0.54,VWS V14.01,2013-02-19 21:21:00,
2013-02-19 16:22:00,149.5,99.9,0.00,NE,48,5.3,10.4,40,0.00,,SKC,0.54,VWS V14.01,2013-02-19 21:22:00,
2013-02-19 16:25:00,149.5,99.9,0.00,NNE,14,12.8,16.5,39,0.00,,SKC,0.54,VWS V14.01,2013-02-19 21:25:00,
2013-02-19 16:26:00,149.5,99.9,0.00,NNW,346,8.5,14.7,39,0.00,,SKC,0.54,VWS V14.01,2013-02-19 21:26:00,
2013-02-19 16:27:00,149.5,99.9,0.00,NNE,17,11.7,16.1,40,0.00,,SKC,0.54,VWS V14.01,2013-02-19 21:27:00,
2013-02-19 16:30:00,149.5,99.9,0.00,ENE,68,7.9,9.3,41,0.00,,SKC,0.54,VWS V14.01,2013-02-19 21:30:00,
2013-02-19 16:31:00,149.5,99.9,0.00,NNE,30,5.6,6.0,41,0.00,,SKC,0.54,VWS V14.01,2013-02-19 21:31:00,
2013-02-19 16:32:00,149.5,99.9,0.00,NNE,14,8.8,10.2,41,0.00,,SKC,0.54,VWS V14.01,2013-02-19 21:32:00,
2013-02-19 16:35:00,149.5,99.9,0.00,NNE,13,6.8,9.2,40,0.00,,SKC,0.54,VWS V14.01,2013-02-19 21:35:00,
2013-02-19 16:36:00,149.5,99.9,0.00,NE,48,10.7,27.8,40,0.00,,SKC,0.54,VWS V14.01,2013-02-19 21:36:00,
2013-02-19 16:37:00,149.5,99.9,0.00,NE,39,7.4,27.8,39,0.00,,SKC,0.54,VWS V14.01,2013-02-19 21:37:00,
2013-02-19 16:40:00,149.5,99.9,0.00,NNE,14,11.7,27.3,40,0.00,,SKC,0.54,VWS V14.01,2013-02-19 21:40:00,
2013-02-19 16:41:00,149.5,99.9,0.00,WSW,246,6.5,13.2,40,0.00,,SKC,0.54,VWS V14.01,2013-02-19 21:41:00,
2013-02-19 16:42:00,149.5,99.9,0.00,NE,48,12.4,16.7,40,0.00,,SKC,0.54,VWS V14.01,2013-02-19 21:42:00,
2013-02-19 16:45:00,149.5,99.9,0.00,NE,37,10.4,13.1,39,0.00,,SKC,0.54,VWS V14.01,2013-02-19 21:45:00,
2013-02-19 16:46:00,149.5,99.9,0.00,NNE,15,6.7,24.9,39,0.00,,SKC,0.54,VWS V14.01,2013-02-19 21:46:00,
2013-02-19 16:47:00,149.5,99.9,0.00,NNE,13,4.2,24.9,39,0.00,,SKC,0.54,VWS V14.01,2013-02-19 21:47:00,
2013-02-19 16:50:00,149.5,99.9,0.00,NE,37,10.4,16.5,38,0.00,,SKC,0.54,VWS V14.01,2013-02-19 21:50:00,
2013-02-19 16:51:00,149.5,99.9,0.00,NNW,347,9.9,10.3,39,0.00,,SKC,0.54,VWS V14.01,2013-02-19 21:51:00,
2013-02-19 16:52:00,149.5,99.9,0.00,NNE,17,12.6,14.7,39,0.00,,SKC,0.54,VWS V14.01,2013-02-19 21:52:00,
2013-02-19 16:55:00,149.5,99.9,0.00,NE,48,11.4,13.4,39,0.00,,SKC,0.54,VWS V14.01,2013-02-19 21:55:00,
2013-02-19 16:57:00,149.5,99.9,0.00,NE,45,8.0,15.0,38,0.00,,SKC,0.54,VWS V14.01,2013-02-19 21:57:00,
2013-02-19 17:00:00,149.5,99.9,0.00,ENE,66,11.9,31.9,39,0.00,,SKC,0.54,VWS V14.01,2013-02-19 22:00:00,
2013-02-19 17:02:00,149.5,99.9,0.00,NNE,30,9.8,21.7,39,0.00,,SKC,0.54,VWS V14.01,2013-02-19 22:02:00,
2013-02-19 17:05:00,149.5,99.9,0.00,North,359,7.0,16.0,40,0.00,,SKC,0.54,VWS V14.01,2013-02-19 22:05:00,
2013-02-19 17:07:00,149.5,99.9,0.00,North,7,8.8,19.4,40,0.00,,SKC,0.54,VWS V14.01,2013-02-19 22:07:00,
2013-02-19 17:10:00,149.5,99.9,0.00,NE,39,16.3,16.3,37,0.00,,SKC,0.54,VWS V14.01,2013-02-19 22:10:00,
2013-02-19 17:12:00,149.5,99.9,0.00,NNE,18,11.0,17.4,36,0.00,,SKC,0.54,VWS V14.01,2013-02-19 22:12:00,
2013-02-19 17:15:00,149.5,99.9,0.00,NNE,14,6.8,10.4,37,0.00,,SKC,0.54,VWS V14.01,2013-02-19 22:15:00,
2013-02-19 17:17:00,149.5,99.9,0.00,NNE,15,17.8,28.1,38,0.00,,SKC,0.54,VWS V14.01,2013-02-19 22:17:00,
2013-02-19 17:20:00,149.5,99.9,0.00,NE,46,6.2,20.7,37,0.00,,SKC,0.54,VWS V14.01,2013-02-19 22:20:00,
2013-02-19 17:22:00,149.5,99.9,0.00,NE,34,13.6,20.8,38,0.00,,SKC,0.54,VWS V14.01,2013-02-19 22:22:00,
2013-02-19 17:26:00,149.5,99.9,0.00,NNE,32,8.5,11.6,37,0.00,,SKC,0.54,VWS V14.01,2013-02-19 22:26:00,
2013-02-19 17:27:00,149.5,99.9,0.00,NE,53,11.0,19.6,36,0.00,,SKC,0.54,VWS V14.01,2013-02-19 22:27:00,
2013-02-19 17:31:00,149.5,99.9,0.00,NNE,17,8.5,11.2,37,0.00,,SKC,0.54,VWS V14.01,2013-02-19 22:31:00,
2013-02-19 17:32:00,149.5,99.9,0.00,NNE,22,16.5,16.7,37,0.00,,SKC,0.54,VWS V14.01,2013-02-19 22:32:00,
2013-02-19 17:36:00,149.5,99.9,0.00,ENE,68,9.5,18.8,37,0.00,,SKC,0.54,VWS V14.01,2013-02-19 22:36:00,
2013-02-19 17:37:00,149.5,99.9,0.00,NE,41,11.1,12.6,38,0.00,,SKC,0.54,VWS V14.01,2013-02-19 22:37:00,
2013-02-19 17:38:00,149.5,99.9,0.00,NE,34,10.2,12.6,37,0.00,,SKC,0.54,VWS V14.01,2013-02-19 22:38:00,
2013-02-19 17:42:00,149.5,99.9,0.00,NNE,31,8.1,9.4,38,0.00,,SKC,0.54,VWS V14.01,2013-02-19 22:42:00,
2013-02-19 17:43:00,149.5,99.9,0.00,NE,35,7.4,8.6,38,0.00,,SKC,0.54,VWS V14.01,2013-02-19 22:43:00,
2013-02-19 17:47:00,149.5,99.9,0.00,NNE,32,8.5,9.7,38,0.00,,SKC,0.54,VWS V14.01,2013-02-19 22:47:00,
2013-02-19 17:48:00,149.5,99.9,0.00,ENE,77,12.6,14.0,38,0.00,,SKC,0.54,VWS V14.01,2013-02-19 22:48:00,
2013-02-19 17:52:00,149.5,99.9,0.00,North,7,5.2,6.0,39,0.00,,SKC,0.54,VWS V14.01,2013-02-19 22:52:00,
2013-02-19 17:53:00,149.5,99.9,0.00,North,11,9.8,16.3,39,0.00,,SKC,0.54,VWS V14.01,2013-02-19 22:53:00,
2013-02-19 17:57:00,149.5,99.9,0.00,NE,44,11.4,12.9,39,0.00,,SKC,0.54,VWS V14.01,2013-02-19 22:57:00,
2013-02-19 17:58:00,149.5,99.9,0.00,NNE,27,12.2,12.2,39,0.00,,SKC,0.54,VWS V14.01,2013-02-19 22:58:00,
2013-02-19 18:02:00,149.5,99.9,0.00,NNE,21,5.8,6.5,40,0.00,,SKC,0.54,VWS V14.01,2013-02-19 23:02:00,
2013-02-19 18:03:00,149.5,99.9,0.00,NNE,31,4.5,8.1,40,0.00,,SKC,0.54,VWS V14.01,2013-02-19 23:03:00,
2013-02-19 18:07:00,149.5,99.9,0.00,NNE,21,9.8,13.0,39,0.00,,SKC,0.54,VWS V14.01,2013-02-19 23:07:00,
2013-02-19 18:08:00,149.5,99.9,0.00,NE,41,5.5,10.9,39,0.00,,SKC,0.54,VWS V14.01,2013-02-19 23:08:00,
2013-02-19 18:12:00,149.5,99.9,0.00,NE,48,6.5,9.4,38,0.00,,SKC,0.54,VWS V14.01,2013-02-19 23:12:00,
2013-02-19 18:13:00,149.5,99.9,0.00,NE,38,12.4,14.3,38,0.00,,SKC,0.54,VWS V14.01,2013-02-19 23:13:00,
2013-02-19 18:17:00,149.5,99.9,0.00,NNE,30,8.9,11.4,37,0.00,,SKC,0.54,VWS V14.01,2013-02-19 23:17:00,
2013-02-19 18:18:00,149.5,99.9,0.00,ENE,62,4.9,7.5,38,0.00,,SKC,0.54,VWS V14.01,2013-02-19 23:18:00,
2013-02-19 18:22:00,149.5,99.9,0.00,NNE,27,7.1,7.1,39,0.00,,SKC,0.54,VWS V14.01,2013-02-19 23:22:00,
2013-02-19 18:23:00,149.5,99.9,0.00,ENE,66,7.5,15.8,38,0.00,,SKC,0.54,VWS V14.01,2013-02-19 23:23:00,
2013-02-19 18:28:00,149.5,99.9,0.00,NE,38,10.5,12.4,39,0.00,,SKC,0.54,VWS V14.01,2013-02-19 23:28:00,
2013-02-19 18:33:00,149.5,99.9,0.00,NE,55,4.6,6.8,40,0.00,,SKC,0.54,VWS V14.01,2013-02-19 23:33:00,
2013-02-19 18:34:00,149.5,99.9,0.00,ENE,59,7.6,8.3,40,0.00,,SKC,0.54,VWS V14.01,2013-02-19 23:34:00,
2013-02-19 18:38:00,149.5,99.9,0.00,ENE,76,2.8,6.2,40,0.00,,SKC,0.54,VWS V14.01,2013-02-19 23:38:00,
2013-02-19 18:39:00,149.5,99.9,0.00,NNE,24,6.7,6.7,40,0.00,,SKC,0.54,VWS V14.01,2013-02-19 23:39:00,
2013-02-19 18:43:00,149.5,99.9,0.00,NE,41,10.4,10.4,41,0.00,,SKC,0.54,VWS V14.01,2013-02-19 23:43:00,
2013-02-19 18:44:00,149.5,99.9,0.00,NE,45,3.9,6.8,41,0.00,,SKC,0.54,VWS V14.01,2013-02-19 23:44:00,
2013-02-19 18:48:00,149.5,99.9,0.00,ENE,58,5.5,7.1,42,0.00,,SKC,0.54,VWS V14.01,2013-02-19 23:48:00,
2013-02-19 18:49:00,149.5,99.9,0.00,NE,34,1.7,3.4,42,0.00,,SKC,0.54,VWS V14.01,2013-02-19 23:49:00,
2013-02-19 18:53:00,149.5,99.9,0.00,NE,44,4.8,8.6,42,0.00,,SKC,0.54,VWS V14.01,2013-02-19 23:53:00,
2013-02-19 18:54:00,149.5,99.9,0.00,NE,46,4.3,6.6,42,0.00,,SKC,0.54,VWS V14.01,2013-02-19 23:54:00,
2013-02-19 18:58:00,149.5,99.9,0.00,NE,44,2.8,7.9,42,0.00,,SKC,0.54,VWS V14.01,2013-02-19 23:58:00,
2013-02-19 18:59:00,149.5,99.9,0.00,North,8,6.5,8.3,42,0.00,,SKC,0.54,VWS V14.01,2013-02-19 23:59:00,
2013-02-19 19:03:00,149.5,99.9,0.00,NE,41,6.9,6.9,43,0.00,,SKC,0.54,VWS V14.01,2013-02-20 00:03:00,
2013-02-19 19:04:00,149.5,99.9,0.00,NNE,28,7.5,7.7,43,0.00,,SKC,0.54,VWS V14.01,2013-02-20 00:04:00,
2013-02-19 19:08:00,149.5,99.9,0.00,NE,51,3.7,5.5,43,0.00,,SKC,0.54,VWS V14.01,2013-02-20 00:08:00,
2013-02-19 19:09:00,149.5,99.9,0.00,NE,42,2.2,3.7,43,0.00,,SKC,0.54,VWS V14.01,2013-02-20 00:09:00,
2013-02-19 19:13:00,149.5,99.9,0.00,NE,45,3.0,7.5,43,0.00,,SKC,0.54,VWS V14.01,2013-02-20 00:13:00,
2013-02-19 19:14:00,149.5,99.9,0.00,NE,48,0.0,3.7,43,0.00,,SKC,0.54,VWS V14.01,2013-02-20 00:14:00,
2013-02-19 19:19:00,149.5,99.9,0.00,NE,53,5.5,5.5,44,0.00,,SKC,0.54,VWS V14.01,2013-02-20 00:19:00,
2013-02-19 19:20:00,149.5,99.9,0.00,NNE,18,3.9,7.6,44,0.00,,SKC,0.54,VWS V14.01,2013-02-20 00:20:00,
2013-02-19 19:24:00,149.5,99.9,0.00,NE,42,3.2,3.4,44,0.00,,SKC,0.54,VWS V14.01,2013-02-20 00:24:00,
2013-02-19 19:25:00,149.5,99.9,0.00,NE,49,4.5,4.6,44,0.00,,SKC,0.54,VWS V14.01,2013-02-20 00:25:00,
2013-02-19 19:29:00,149.5,99.9,0.00,NE,39,5.3,5.5,45,0.00,,SKC,0.54,VWS V14.01,2013-02-20 00:29:00,
2013-02-19 19:30:00,149.5,99.9,0.00,NE,42,3.4,3.8,45,0.00,,SKC,0.54,VWS V14.01,2013-02-20 00:30:00,
2013-02-19 19:34:00,149.5,99.9,0.00,NE,41,3.7,7.1,45,0.00,,SKC,0.54,VWS V14.01,2013-02-20 00:34:00,
2013-02-19 19:35:00,149.5,99.9,0.00,NNE,25,7.0,7.0,45,0.00,,SKC,0.54,VWS V14.01,2013-02-20 00:35:00,
2013-02-19 19:39:00,149.5,99.9,0.00,NNE,14,4.3,5.9,46,0.00,,SKC,0.54,VWS V14.01,2013-02-20 00:39:00,
2013-02-19 19:40:00,149.5,99.9,0.00,NE,35,5.0,7.5,46,0.00,,SKC,0.54,VWS V14.01,2013-02-20 00:40:00,
2013-02-19 19:44:00,149.5,99.9,0.00,NNE,22,4.1,4.6,47,0.00,,SKC,0.54,VWS V14.01,2013-02-20 00:44:00,
2013-02-19 19:45:00,149.5,99.9,0.00,NNE,17,5.3,6.7,47,0.00,,SKC,0.54,VWS V14.01,2013-02-20 00:45:00,
2013-02-19 19:49:00,149.5,99.9,0.00,NE,34,5.0,5.3,47,0.00,,SKC,0.54,VWS V14.01,2013-02-20 00:49:00,
2013-02-19 19:50:00,149.5,99.9,0.00,NNE,32,4.2,4.2,48,0.00,,SKC,0.54,VWS V14.01,2013-02-20 00:50:00,
2013-02-19 19:54:00,149.5,99.9,0.00,NNE,27,0.0,0.0,48,0.00,,SKC,0.54,VWS V14.01,2013-02-20 00:54:00,
2013-02-19 19:55:00,149.5,99.9,0.00,NNE,27,0.0,0.0,48,0.00,,SKC,0.54,VWS V14.01,2013-02-20 00:55:00,
2013-02-19 20:00:00,149.5,99.9,0.00,NE,56,2.0,2.1,48,0.00,,SKC,0.54,VWS V14.01,2013-02-20 01:00:00,
2013-02-19 20:05:00,149.5,99.9,0.00,ENE,66,3.0,4.1,49,0.00,,SKC,0.54,VWS V14.01,2013-02-20 01:05:00,
2013-02-19 20:06:00,149.5,99.9,0.00,NE,52,5.2,5.2,49,0.00,,SKC,0.54,VWS V14.01,2013-02-20 01:06:00,
2013-02-19 20:10:00,149.5,99.9,0.00,NE,34,0.0,0.0,50,0.00,,SKC,0.54,VWS V14.01,2013-02-20 01:10:00,
2013-02-19 20:11:00,149.5,99.9,0.00,NE,48,2.7,3.0,50,0.00,,SKC,0.54,VWS V14.01,2013-02-20 01:11:00,
2013-02-19 20:15:00,149.5,99.9,0.00,ENE,58,2.1,2.1,50,0.00,,SKC,0.54,VWS V14.01,2013-02-20 01:15:00,
2013-02-19 20:16:00,149.5,99.9,0.00,NE,39,0.7,1.8,50,0.00,,SKC,0.54,VWS V14.01,2013-02-20 01:16:00,
2013-02-19 20:20:00,149.5,99.9,0.00,NE,52,4.8,4.8,51,0.00,,SKC,0.54,VWS V14.01,2013-02-20 01:20:00,
2013-02-19 20:21:00,149.5,99.9,0.00,NE,45,2.2,3.0,51,0.00,,SKC,0.54,VWS V14.01,2013-02-20 01:21:00,
2013-02-19 20:25:00,149.5,99.9,0.00,ENE,60,4.7,4.7,51,0.00,,SKC,0.54,VWS V14.01,2013-02-20 01:25:00,
2013-02-19 20:26:00,149.5,99.9,0.00,NE,39,1.4,3.2,51,0.00,,SKC,0.54,VWS V14.01,2013-02-20 01:26:00,
2013-02-19 20:30:00,149.5,99.9,0.00,NE,37,6.5,6.5,52,0.00,,SKC,0.54,VWS V14.01,2013-02-20 01:30:00,
2013-02-19 20:31:00,149.5,99.9,0.00,NE,42,3.7,4.7,52,0.00,,SKC,0.54,VWS V14.01,2013-02-20 01:31:00,
2013-02-19 20:35:00,149.5,99.9,0.00,NE,42,0.6,3.9,52,0.00,,SKC,0.54,VWS V14.01,2013-02-20 01:35:00,
2013-02-19 20:36:00,149.5,99.9,0.00,NE,41,4.1,4.5,52,0.00,,SKC,0.54,VWS V14.01,2013-02-20 01:36:00,
2013-02-19 20:40:00,149.5,99.9,0.00,NNE,31,5.0,5.5,53,0.00,,SKC,0.54,VWS V14.01,2013-02-20 01:40:00,
2013-02-19 20:41:00,149.5,99.9,0.00,NNE,31,3.4,3.8,53,0.00,,SKC,0.54,VWS V14.01,2013-02-20 01:41:00,
2013-02-19 20:45:00,149.5,99.9,0.00,NNE,30,3.1,3.7,54,0.00,,SKC,0.54,VWS V14.01,2013-02-20 01:45:00,
2013-02-19 20:46:00,149.5,99.9,0.00,NE,34,2.4,2.9,54,0.00,,SKC,0.54,VWS V14.01,2013-02-20 01:46:00,
2013-02-19 20:50:00,149.5,99.9,0.00,NNE,31,3.4,3.5,54,0.00,,SKC,0.54,VWS V14.01,2013-02-20 01:50:00,
2013-02-19 20:51:00,149.5,99.9,0.00,NNE,21,4.4,4.4,54,0.00,,SKC,0.54,VWS V14.01,2013-02-20 01:51:00,
2013-02-19 20:55:00,149.5,99.9,0.00,NNE,24,6.3,6.5,55,0.00,,SKC,0.54,VWS V14.01,2013-02-20 01:55:00,
2013-02-19 20:56:00,149.5,99.9,0.00,NNE,31,3.3,6.3,55,0.00,,SKC,0.54,VWS V14.01,2013-02-20 01:56:00,
2013-02-19 20:57:00,149.5,99.9,0.00,NNE,18,5.1,5.5,55,0.00,,SKC,0.54,VWS V14.01,2013-02-20 01:57:00,
2013-02-19 21:00:00,149.5,99.9,0.00,NNE,27,4.2,4.7,55,0.00,,SKC,0.54,VWS V14.01,2013-02-20 02:00:00,
2013-02-19 21:01:00,149.5,99.9,0.00,NNE,17,6.5,7.5,55,0.00,,SKC,0.54,VWS V14.01,2013-02-20 02:01:00,
2013-02-19 21:02:00,149.5,99.9,0.00,NNE,31,3.9,5.2,55,0.00,,SKC,0.54,VWS V14.01,2013-02-20 02:02:00,
2013-02-19 21:05:00,149.5,99.9,0.00,NNE,21,5.9,6.0,56,0.00,,SKC,0.54,VWS V14.01,2013-02-20 02:05:00,
2013-02-19 21:06:00,149.5,99.9,0.00,NNE,15,6.3,6.3,56,0.00,,SKC,0.54,VWS V14.01,2013-02-20 02:06:00,
2013-02-19 21:07:00,149.5,99.9,0.00,NNE,30,4.8,7.1,56,0.00,,SKC,0.54,VWS V14.01,2013-02-20 02:07:00,
2013-02-19 21:11:00,149.5,99.9,0.00,NNE,27,4.0,4.9,56,0.00,,SKC,0.54,VWS V14.01,2013-02-20 02:11:00,
2013-02-19 21:12:00,149.5,99.9,0.00,NNE,18,4.6,4.6,56,0.00,,SKC,0.54,VWS V14.01,2013-02-20 02:12:00,
2013-02-19 21:16:00,149.5,99.9,0.00,NNE,17,3.3,4.2,57,0.00,,SKC,0.54,VWS V14.01,2013-02-20 02:16:00,
2013-02-19 21:17:00,149.5,99.9,0.00,NNE,32,3.0,5.9,57,0.00,,SKC,0.54,VWS V14.01,2013-02-20 02:17:00,
2013-02-19 21:21:00,149.5,99.9,0.00,NNE,32,3.2,5.1,57,0.00,,SKC,0.54,VWS V14.01,2013-02-20 02:21:00,
2013-02-19 21:22:00,149.5,99.9,0.00,NE,42,5.5,5.5,57,0.00,,SKC,0.54,VWS V14.01,2013-02-20 02:22:00,
2013-02-19 21:26:00,149.5,99.9,0.00,NE,37,3.2,5.6,57,0.00,,SKC,0.54,VWS V14.01,2013-02-20 02:26:00,
2013-02-19 21:27:00,149.5,99.9,0.00,NE,41,5.8,8.0,57,0.00,,SKC,0.54,VWS V14.01,2013-02-20 02:27:00,
2013-02-19 21:31:00,149.5,99.9,0.00,NNE,21,6.2,7.3,57,0.00,,SKC,0.54,VWS V14.01,2013-02-20 02:31:00,
2013-02-19 21:32:00,149.5,99.9,0.00,NE,39,3.2,5.0,57,0.00,,SKC,0.54,VWS V14.01,2013-02-20 02:32:00,
2013-02-19 21:36:00,149.5,99.9,0.00,NE,39,4.3,4.8,58,0.00,,SKC,0.54,VWS V14.01,2013-02-20 02:36:00,
2013-02-19 21:37:00,149.5,99.9,0.00,ENE,59,4.8,7.1,58,0.00,,SKC,0.54,VWS V14.01,2013-02-20 02:37:00,
2013-02-19 21:41:00,149.5,99.9,0.00,NE,49,3.0,5.9,58,0.00,,SKC,0.54,VWS V14.01,2013-02-20 02:41:00,
2013-02-19 21:42:00,149.5,99.9,0.00,NE,53,5.5,5.5,58,0.00,,SKC,0.54,VWS V14.01,2013-02-20 02:42:00,
2013-02-19 21:46:00,149.5,99.9,0.00,NE,35,4.7,6.8,59,0.00,,SKC,0.54,VWS V14.01,2013-02-20 02:46:00,
2013-02-19 21:47:00,149.5,99.9,0.00,NNE,32,3.3,6.3,59,0.00,,SKC,0.54,VWS V14.01,2013-02-20 02:47:00,
2013-02-19 21:51:00,149.5,99.9,0.00,NNE,27,5.3,6.9,59,0.00,,SKC,0.54,VWS V14.01,2013-02-20 02:51:00,
2013-02-19 21:52:00,149.5,99.9,0.00,NNE,28,6.0,9.1,59,0.00,,SKC,0.54,VWS V14.01,2013-02-20 02:52:00,
2013-02-19 21:53:00,149.5,99.9,0.00,NNE,32,7.0,8.1,59,0.00,,SKC,0.54,VWS V14.01,2013-02-20 02:53:00,
2013-02-19 21:56:00,149.5,99.9,0.00,NNE,32,6.2,8.4,59,0.00,,SKC,0.54,VWS V14.01,2013-02-20 02:56:00,
2013-02-19 21:57:00,149.5,99.9,0.00,NE,44,5.8,6.2,59,0.00,,SKC,0.54,VWS V14.01,2013-02-20 02:57:00,
2013-02-19 21:58:00,149.5,99.9,0.00,North,10,6.5,6.5,59,0.00,,SKC,0.54,VWS V14.01,2013-02-20 02:58:00,
2013-02-19 22:01:00,149.5,99.9,0.00,NNE,17,5.8,8.5,60,0.00,,SKC,0.54,VWS V14.01,2013-02-20 03:01:00,
2013-02-19 22:03:00,149.5,99.9,0.00,NNE,28,5.8,6.3,60,0.00,,SKC,0.54,VWS V14.01,2013-02-20 03:03:00,
2013-02-19 22:06:00,149.5,99.9,0.00,NNE,22,7.4,7.4,60,0.00,,SKC,0.54,VWS V14.01,2013-02-20 03:06:00,
2013-02-19 22:07:00,149.5,99.9,0.00,NNE,21,6.2,7.4,60,0.00,,SKC,0.54,VWS V14.01,2013-02-20 03:07:00,
2013-02-19 22:08:00,149.5,99.9,0.00,NNE,24,4.0,5.5,60,0.00,,SKC,0.54,VWS V14.01,2013-02-20 03:08:00,
2013-02-19 22:12:00,149.5,99.9,0.00,NE,41,3.4,7.2,60,0.00,,SKC,0.54,VWS V14.01,2013-02-20 03:12:00,
2013-02-19 22:13:00,149.5,99.9,0.00,NE,35,4.9,6.0,60,0.00,,SKC,0.54,VWS V14.01,2013-02-20 03:13:00,
2013-02-19 22:17:00,149.5,99.9,0.00,NE,44,6.5,6.5,60,0.00,,SKC,0.54,VWS V14.01,2013-02-20 03:17:00,
2013-02-19 22:18:00,149.5,99.9,0.00,ENE,62,3.5,6.8,60,0.00,,SKC,0.54,VWS V14.01,2013-02-20 03:18:00,
2013-02-19 22:19:00,149.5,99.9,0.00,NNE,31,5.3,5.3,61,0.00,,SKC,0.54,VWS V14.01,2013-02-20 03:19:00,
2013-02-19 22:22:00,149.5,99.9,0.00,NNE,25,5.5,6.3,61,0.00,,SKC,0.54,VWS V14.01,2013-02-20 03:22:00,
2013-02-19 22:23:00,149.5,99.9,0.00,ENE,60,6.7,9.1,61,0.00,,SKC,0.54,VWS V14.01,2013-02-20 03:23:00,
2013-02-19 22:24:00,149.5,99.9,0.00,NNE,25,4.5,7.7,61,0.00,,SKC,0.54,VWS V14.01,2013-02-20 03:24:00,
2013-02-19 22:27:00,149.5,99.9,0.00,NE,48,3.8,6.8,61,0.00,,SKC,0.54,VWS V14.01,2013-02-20 03:27:00,
2013-02-19 22:28:00,149.5,99.9,0.00,NE,41,2.4,6.1,61,0.00,,SKC,0.54,VWS V14.01,2013-02-20 03:28:00,
2013-02-19 22:29:00,149.5,99.9,0.00,NE,37,3.5,5.8,61,0.00,,SKC,0.54,VWS V14.01,2013-02-20 03:29:00,
2013-02-19 22:32:00,149.5,99.9,0.00,NE,45,3.7,8.0,62,0.00,,SKC,0.54,VWS V14.01,2013-02-20 03:32:00,
2013-02-19 22:33:00,149.5,99.9,0.00,NNE,28,7.0,8.1,62,0.00,,SKC,0.54,VWS V14.01,2013-02-20 03:33:00,
2013-02-19 22:34:00,149.5,99.9,0.00,NNE,24,5.5,9.5,62,0.00,,SKC,0.54,VWS V14.01,2013-02-20 03:34:00,
2013-02-19 22:37:00,149.5,99.9,0.00,NNE,32,4.4,10.6,62,0.00,,SKC,0.54,VWS V14.01,2013-02-20 03:37:00,
2013-02-19 22:38:00,149.5,99.9,0.00,NE,35,6.5,7.6,62,0.00,,SKC,0.54,VWS V14.01,2013-02-20 03:38:00,
2013-02-19 22:39:00,149.5,99.9,0.00,NNE,27,5.4,7.1,62,0.00,,SKC,0.54,VWS V14.01,2013-02-20 03:39:00,
2013-02-19 22:42:00,149.5,99.9,0.00,NE,37,8.5,9.3,62,0.00,,SKC,0.54,VWS V14.01,2013-02-20 03:42:00,
2013-02-19 22:43:00,149.5,99.9,0.00,NNE,24,8.3,8.4,62,0.00,,SKC,0.54,VWS V14.01,2013-02-20 03:43:00,
2013-02-19 22:44:00,149.5,99.9,0.00,NNE,31,4.8,8.4,62,0.00,,SKC,0.54,VWS V14.01,2013-02-20 03:44:00,
2013-02-19 22:47:00,149.5,99.9,0.00,NNE,28,5.3,9.6,63,0.00,,SKC,0.54,VWS V14.01,2013-02-20 03:47:00,
2013-02-19 22:48:00,149.5,99.9,0.00,NNE,25,5.5,6.2,63,0.00,,SKC,0.54,VWS V14.01,2013-02-20 03:48:00,
2013-02-19 22:49:00,149.5,99.9,0.00,NE,45,6.4,11.1,63,0.00,,SKC,0.54,VWS V14.01,2013-02-20 03:49:00,
2013-02-19 22:52:00,149.5,99.9,0.00,NE,56,3.7,6.7,63,0.00,,SKC,0.54,VWS V14.01,2013-02-20 03:52:00,
2013-02-19 22:53:00,149.5,99.9,0.00,NE,53,7.9,7.9,63,0.00,,SKC,0.54,VWS V14.01,2013-02-20 03:53:00,
2013-02-19 22:54:00,149.5,99.9,0.00,NE,42,5.0,5.6,63,0.00,,SKC,0.54,VWS V14.01,2013-02-20 03:54:00,
2013-02-19 22:57:00,149.5,99.9,0.00,NNE,20,7.3,7.6,63,0.00,,SKC,0.54,VWS V14.01,2013-02-20 03:57:00,
2013-02-19 22:58:00,149.5,99.9,0.00,NNE,24,4.9,7.3,63,0.00,,SKC,0.54,VWS V14.01,2013-02-20 03:58:00,
2013-02-19 22:59:00,149.5,99.9,0.00,NE,41,5.9,8.0,63,0.00,,SKC,0.54,VWS V14.01,2013-02-20 03:59:00,
2013-02-19 23:02:00,149.5,99.9,0.00,NNE,13,5.2,6.3,63,0.00,,SKC,0.54,VWS V14.01,2013-02-20 04:02:00,
2013-02-19 23:03:00,149.5,99.9,0.00,NNE,31,5.9,6.3,63,0.00,,SKC,0.54,VWS V14.01,2013-02-20 04:03:00,
2013-02-19 23:04:00,149.5,99.9,0.00,NE,38,5.8,9.8,64,0.00,,SKC,0.54,VWS V14.01,2013-02-20 04:04:00,
2013-02-19 23:07:00,149.5,99.9,0.00,NNE,28,5.2,6.4,64,0.00,,SKC,0.54,VWS V14.01,2013-02-20 04:07:00,
2013-02-19 23:08:00,149.5,99.9,0.00,NE,35,8.8,8.8,64,0.00,,SKC,0.54,VWS V14.01,2013-02-20 04:08:00,
2013-02-19 23:09:00,149.5,99.9,0.00,NNE,22,7.5,9.3,64,0.00,,SKC,0.54,VWS V14.01,2013-02-20 04:09:00,
2013-02-19 23:12:00,149.5,99.9,0.00,NE,34,6.4,6.4,64,0.00,,SKC,0.54,VWS V14.01,2013-02-20 04:12:00,
2013-02-19 23:13:00,149.5,99.9,0.00,NNE,17,4.7,7.9,64,0.00,,SKC,0.54,VWS V14.01,2013-02-20 04:13:00,
2013-02-19 23:14:00,149.5,99.9,0.00,NNE,31,7.3,9.5,64,0.00,,SKC,0.54,VWS V14.01,2013-02-20 04:14:00,
2013-02-19 23:17:00,149.5,99.9,0.00,NNE,25,6.8,7.5,65,0.00,,SKC,0.54,VWS V14.01,2013-02-20 04:17:00,
2013-02-19 23:18:00,149.5,99.9,0.00,North,10,6.5,8.1,65,0.00,,SKC,0.54,VWS V14.01,2013-02-20 04:18:00,
2013-02-19 23:19:00,149.5,99.9,0.00,NNE,32,4.1,5.3,65,0.00,,SKC,0.54,VWS V14.01,2013-02-20 04:19:00,
2013-02-19 23:23:00,149.5,99.9,0.00,NNE,31,5.3,7.2,66,0.00,,SKC,0.54,VWS V14.01,2013-02-20 04:23:00,
2013-02-19 23:24:00,149.5,99.9,0.00,NNE,30,9.3,9.3,66,0.00,,SKC,0.54,VWS V14.01,2013-02-20 04:24:00,
2013-02-19 23:28:00,149.5,99.9,0.00,North,11,7.1,8.8,66,0.00,,SKC,0.54,VWS V14.01,2013-02-20 04:28:00,
2013-02-19 23:29:00,149.5,99.9,0.00,NNE,14,5.1,7.2,66,0.00,,SKC,0.54,VWS V14.01,2013-02-20 04:29:00,
2013-02-19 23:33:00,149.5,99.9,0.00,NNE,14,7.3,7.3,67,0.00,,SKC,0.54,VWS V14.01,2013-02-20 04:33:00,
2013-02-19 23:34:00,149.5,99.9,0.00,NNE,22,5.3,7.2,67,0.00,,SKC,0.54,VWS V14.01,2013-02-20 04:34:00,
2013-02-19 23:38:00,149.5,99.9,0.00,NNE,21,5.5,5.5,68,0.00,,SKC,0.54,VWS V14.01,2013-02-20 04:38:00,
2013-02-19 23:39:00,149.5,99.9,0.00,NE,37,7.0,7.0,68,0.00,,SKC,0.54,VWS V14.01,2013-02-20 04:39:00,
2013-02-19 23:43:00,149.5,99.9,0.00,NNE,18,6.0,6.6,69,0.00,,SKC,0.54,VWS V14.01,2013-02-20 04:43:00,
2013-02-19 23:44:00,149.5,99.9,0.00,NNE,25,5.3,6.6,69,0.00,,SKC,0.54,VWS V14.01,2013-02-20 04:44:00,
2013-02-19 23:45:00,149.5,99.9,0.00,NNE,17,5.5,7.0,69,0.00,,SKC,0.54,VWS V14.01,2013-02-20 04:45:00,
2013-02-19 23:48:00,149.5,99.9,0.00,NNE,31,6.6,6.6,69,0.00,,SKC,0.54,VWS V14.01,2013-02-20 04:48:00,
2013-02-19 23:49:00,149.5,99.9,0.00,NNE,27,7.5,8.3,69,0.00,,SKC,0.54,VWS V14.01,2013-02-20 04:49:00,
2013-02-19 23:50:00,149.5,99.9,0.00,North,4,4.6,6.4,69,0.00,,SKC,0.54,VWS V14.01,2013-02-20 04:50:00,
2013-02-19 23:53:00,149.5,99.9,0.00,NNE,25,6.6,8.6,70,0.00,,SKC,0.54,VWS V14.01,2013-02-20 04:53:00,
2013-02-19 23:54:00,149.5,99.9,0.00,NNE,24,7.1,7.8,70,0.00,,SKC,0.54,VWS V14.01,2013-02-20 04:54:00,
2013-02-19 23:55:00,149.5,99.9,0.00,NNE,20,4.5,5.7,70,0.00,,SKC,0.54,VWS V14.01,2013-02-20 04:55:00,
2013-02-19 23:58:00,149.5,99.9,0.00,NNE,32,4.5,5.8,70,0.00,,SKC,0.54,VWS V14.01,2013-02-20 04:58:00,
2013-02-19 23:59:00,149.5,99.9,0.00,NNE,13,4.2,6.0,70,0.00,,SKC,0.54,VWS V14.01,2013-02-20 04:59:00,